Wetterdaten: Mittwoch, 25.02.2015
Datum Zeit Temp. Aussen +5cm Feuchte Auss Luftdruck Regen Sonnenschein Regendauer Solar Windben
25.02.2015 00:00 2,5 C 1,1 C 95 % 1013,5 hPa 0,0 l/m 0 min 0 min 0 W/m 14,6 km/h (3 Bft)
25.02.2015 00:02 2,6 C 1,1 C 95 % 1013,7 hPa 0,0 l/m 0 min 0 min 0 W/m 16,7 km/h (3 Bft)
25.02.2015 00:06 2,6 C 1,1 C 95 % 1013,7 hPa 0,0 l/m 0 min 0 min 0 W/m 14,6 km/h (3 Bft)
25.02.2015 00:08 2,5 C 1,1 C 95 % 1013,8 hPa 0,2 l/m 0 min 2 min 0 W/m 10,5 km/h (2 Bft)
25.02.2015 00:10 2,6 C 1,1 C 95 % 1013,7 hPa 0,0 l/m 0 min 2 min 0 W/m 10,5 km/h (2 Bft)
25.02.2015 00:12 2,6 C 1,1 C 95 % 1013,8 hPa 0,0 l/m 0 min 2 min 0 W/m 12,6 km/h (3 Bft)
25.02.2015 00:14 2,6 C 1,1 C 95 % 1013,8 hPa 0,2 l/m 0 min 2 min 0 W/m 29,3 km/h (5 Bft)
25.02.2015 00:16 2,6 C 1,1 C 95 % 1013,7 hPa 0,0 l/m 0 min 2 min 0 W/m 18,8 km/h (3 Bft)
25.02.2015 00:18 2,6 C 1,7 C 95 % 1013,7 hPa 0,0 l/m 0 min 2 min 0 W/m 23,0 km/h (4 Bft)
25.02.2015 00:20 2,6 C 1,7 C 95 % 1013,7 hPa 0,0 l/m 0 min 2 min 0 W/m 14,6 km/h (3 Bft)
25.02.2015 00:22 2,6 C 1,7 C 95 % 1013,7 hPa 0,0 l/m 0 min 2 min 0 W/m 18,8 km/h (3 Bft)
25.02.2015 00:24 2,7 C 1,7 C 95 % 1013,6 hPa 0,0 l/m 0 min 2 min 0 W/m 16,7 km/h (3 Bft)
25.02.2015 00:26 2,7 C 1,7 C 95 % 1013,4 hPa 0,2 l/m 0 min 2 min 0 W/m 20,9 km/h (4 Bft)
25.02.2015 00:28 2,7 C 1,1 C 95 % 1013,4 hPa 0,0 l/m 0 min 2 min 0 W/m 20,9 km/h (4 Bft)
25.02.2015 00:30 2,7 C 1,1 C 95 % 1013,4 hPa 0,0 l/m 0 min 2 min 0 W/m 16,7 km/h (3 Bft)
25.02.2015 00:32 2,7 C 1,1 C 95 % 1013,4 hPa 0,0 l/m 0 min 2 min 0 W/m 14,6 km/h (3 Bft)
25.02.2015 00:34 2,7 C 1,1 C 95 % 1013,5 hPa 0,0 l/m 0 min 2 min 0 W/m 14,6 km/h (3 Bft)
25.02.2015 00:36 2,7 C 1,1 C 95 % 1013,4 hPa 0,0 l/m 0 min 2 min 0 W/m 14,6 km/h (3 Bft)
25.02.2015 00:38 2,7 C 1,1 C 95 % 1013,4 hPa 0,0 l/m 0 min 2 min 0 W/m 10,5 km/h (2 Bft)
25.02.2015 00:40 2,7 C 1,1 C 95 % 1013,5 hPa 0,0 l/m 0 min 2 min 0 W/m 10,5 km/h (2 Bft)
25.02.2015 00:42 2,7 C 1,1 C 95 % 1013,5 hPa 0,0 l/m 0 min 2 min 0 W/m 12,6 km/h (3 Bft)
25.02.2015 00:44 2,7 C 1,1 C 95 % 1013,5 hPa 0,0 l/m 0 min 2 min 0 W/m 10,5 km/h (2 Bft)
25.02.2015 00:46 2,7 C 1,1 C 95 % 1013,6 hPa 0,0 l/m 0 min 0 min 0 W/m 12,6 km/h (3 Bft)
25.02.2015 00:48 2,7 C 1,1 C 95 % 1013,6 hPa 0,0 l/m 0 min 0 min 0 W/m 14,6 km/h (3 Bft)
25.02.2015 00:50 2,7 C 1,1 C 95 % 1013,7 hPa 0,0 l/m 0 min 0 min 0 W/m 12,6 km/h (3 Bft)
25.02.2015 00:52 2,7 C 1,1 C 95 % 1013,7 hPa 0,0 l/m 0 min 0 min 0 W/m 14,6 km/h (3 Bft)
25.02.2015 00:54 2,7 C 1,1 C 95 % 1013,7 hPa 0,0 l/m 0 min 0 min 0 W/m 12,6 km/h (3 Bft)
25.02.2015 00:56 2,7 C 1,1 C 95 % 1013,9 hPa 0,0 l/m 0 min 0 min 0 W/m 10,5 km/h (2 Bft)
25.02.2015 00:58 2,7 C 1,1 C 95 % 1013,9 hPa 0,0 l/m 0 min 0 min 0 W/m 16,7 km/h (3 Bft)
25.02.2015 01:00 2,6 C 1,1 C 95 % 1013,9 hPa 0,0 l/m 0 min 0 min 0 W/m 12,6 km/h (3 Bft)
25.02.2015 01:02 2,7 C 1,1 C 95 % 1013,9 hPa 0,0 l/m 0 min 0 min 0 W/m 12,6 km/h (3 Bft)
25.02.2015 01:04 2,6 C 1,1 C 95 % 1013,9 hPa 0,0 l/m 0 min 0 min 0 W/m 10,5 km/h (2 Bft)
25.02.2015 01:06 2,6 C 1,1 C 95 % 1013,9 hPa 0,0 l/m 0 min 0 min 0 W/m 8,4 km/h (2 Bft)
25.02.2015 01:08 2,7 C 1,1 C 95 % 1013,9 hPa 0,0 l/m 0 min 0 min 0 W/m 12,6 km/h (3 Bft)
25.02.2015 01:10 2,6 C 1,1 C 96 % 1014,0 hPa 0,0 l/m 0 min 0 min 0 W/m 8,4 km/h (2 Bft)
25.02.2015 01:12 2,6 C 1,1 C 96 % 1014,0 hPa 0,0 l/m 0 min 0 min 0 W/m 12,6 km/h (3 Bft)
25.02.2015 01:14 2,6 C 1,1 C 96 % 1014,1 hPa 0,0 l/m 0 min 0 min 0 W/m 14,6 km/h (3 Bft)
25.02.2015 01:16 2,6 C 1,1 C 96 % 1014,0 hPa 0,0 l/m 0 min 0 min 0 W/m 12,6 km/h (3 Bft)
25.02.2015 01:18 2,6 C 1,1 C 96 % 1014,0 hPa 0,0 l/m 0 min 0 min 0 W/m 14,6 km/h (3 Bft)
25.02.2015 01:20 2,6 C 1,1 C 96 % 1014,1 hPa 0,0 l/m 0 min 0 min 0 W/m 14,6 km/h (3 Bft)
25.02.2015 01:22 2,6 C 1,1 C 96 % 1014,1 hPa 0,0 l/m 0 min 0 min 0 W/m 12,6 km/h (3 Bft)
25.02.2015 01:24 2,6 C 1,1 C 96 % 1014,1 hPa 0,0 l/m 0 min 0 min 0 W/m 10,5 km/h (2 Bft)
25.02.2015 01:26 2,6 C 1,1 C 96 % 1014,1 hPa 0,0 l/m 0 min 0 min 0 W/m 10,5 km/h (2 Bft)
25.02.2015 01:28 2,6 C 1,1 C 96 % 1014,2 hPa 0,0 l/m 0 min 0 min 0 W/m 6,3 km/h (2 Bft)
25.02.2015 01:30 2,6 C 1,1 C 96 % 1014,2 hPa 0,0 l/m 0 min 0 min 0 W/m 8,4 km/h (2 Bft)
25.02.2015 01:32 2,5 C 1,1 C 96 % 1014,2 hPa 0,0 l/m 0 min 0 min 0 W/m 8,4 km/h (2 Bft)
25.02.2015 01:34 2,5 C 1,1 C 96 % 1014,2 hPa 0,0 l/m 0 min 0 min 0 W/m 10,5 km/h (2 Bft)
25.02.2015 01:36 2,5 C 1,1 C 96 % 1014,2 hPa 0,0 l/m 0 min 0 min 0 W/m 8,4 km/h (2 Bft)
25.02.2015 01:38 2,6 C 1,1 C 96 % 1014,3 hPa 0,0 l/m 0 min 0 min 0 W/m 12,6 km/h (3 Bft)
25.02.2015 01:40 2,6 C 1,1 C 96 % 1014,3 hPa 0,0 l/m 0 min 0 min 0 W/m 10,5 km/h (2 Bft)
25.02.2015 01:42 2,6 C 1,1 C 96 % 1014,3 hPa 0,0 l/m 0 min 0 min 0 W/m 8,4 km/h (2 Bft)
25.02.2015 01:44 2,5 C 1,1 C 96 % 1014,4 hPa 0,0 l/m 0 min 0 min 0 W/m 10,5 km/h (2 Bft)
25.02.2015 01:46 2,6 C 1,1 C 96 % 1014,3 hPa 0,0 l/m 0 min 0 min 0 W/m 8,4 km/h (2 Bft)
25.02.2015 01:48 2,6 C 1,1 C 96 % 1014,3 hPa 0,0 l/m 0 min 0 min 0 W/m 8,4 km/h (2 Bft)
25.02.2015 01:50 2,6 C 1,1 C 96 % 1014,3 hPa 0,2 l/m 0 min 0 min 0 W/m 12,6 km/h (3 Bft)
25.02.2015 01:52 2,6 C 1,1 C 96 % 1014,4 hPa 0,0 l/m 0 min 0 min 0 W/m 12,6 km/h (3 Bft)
25.02.2015 01:54 2,6 C 1,1 C 96 % 1014,4 hPa 0,0 l/m 0 min 0 min 0 W/m 6,3 km/h (2 Bft)
25.02.2015 01:56 2,6 C 1,1 C 96 % 1014,4 hPa 0,0 l/m 0 min 0 min 0 W/m 8,4 km/h (2 Bft)
25.02.2015 01:58 2,6 C 1,1 C 96 % 1014,3 hPa 0,0 l/m 0 min 0 min 0 W/m 10,5 km/h (2 Bft)
25.02.2015 02:00 2,6 C 1,1 C 96 % 1014,4 hPa 0,0 l/m 0 min 0 min 0 W/m 14,6 km/h (3 Bft)
25.02.2015 02:02 2,6 C 0,6 C 96 % 1014,4 hPa 0,0 l/m 0 min 0 min 0 W/m 10,5 km/h (2 Bft)
25.02.2015 02:04 2,6 C 1,1 C 96 % 1014,4 hPa 0,0 l/m 0 min 0 min 0 W/m 12,6 km/h (3 Bft)
25.02.2015 02:06 2,6 C 0,6 C 96 % 1014,3 hPa 0,0 l/m 0 min 0 min 0 W/m 8,4 km/h (2 Bft)
25.02.2015 02:08 2,6 C 0,6 C 96 % 1014,3 hPa 0,0 l/m 0 min 0 min 0 W/m 10,5 km/h (2 Bft)
25.02.2015 02:10 2,5 C 0,6 C 96 % 1014,3 hPa 0,0 l/m 0 min 0 min 0 W/m 8,4 km/h (2 Bft)
25.02.2015 02:12 2,5 C 0,6 C 96 % 1014,3 hPa 0,0 l/m 0 min 0 min 0 W/m 10,5 km/h (2 Bft)
25.02.2015 02:14 2,5 C 0,6 C 96 % 1014,3 hPa 0,0 l/m 0 min 0 min 0 W/m 6,3 km/h (2 Bft)
25.02.2015 02:16 2,5 C 0,6 C 96 % 1014,4 hPa 0,0 l/m 0 min 0 min 0 W/m 6,3 km/h (2 Bft)
25.02.2015 02:18 2,4 C 0,6 C 96 % 1014,4 hPa 0,0 l/m 0 min 0 min 0 W/m 8,4 km/h (2 Bft)
25.02.2015 02:20 2,4 C 0,6 C 96 % 1014,4 hPa 0,0 l/m 0 min 0 min 0 W/m 12,6 km/h (3 Bft)
25.02.2015 02:22 2,4 C 0,6 C 96 % 1014,4 hPa 0,0 l/m 0 min 0 min 0 W/m 8,4 km/h (2 Bft)
25.02.2015 02:24 2,4 C 0,6 C 96 % 1014,3 hPa 0,0 l/m 0 min 0 min 0 W/m 12,6 km/h (3 Bft)
25.02.2015 02:26 2,4 C 0,6 C 96 % 1014,4 hPa 0,0 l/m 0 min 0 min 0 W/m 10,5 km/h (2 Bft)
25.02.2015 02:28 2,4 C 0,6 C 96 % 1014,3 hPa 0,0 l/m 0 min 0 min 0 W/m 8,4 km/h (2 Bft)
25.02.2015 02:30 2,3 C 0,6 C 96 % 1014,4 hPa 0,0 l/m 0 min 0 min 0 W/m 8,4 km/h (2 Bft)
25.02.2015 02:32 2,3 C 0,6 C 96 % 1014,4 hPa 0,0 l/m 0 min 0 min 0 W/m 10,5 km/h (2 Bft)
25.02.2015 02:34 2,3 C 0,6 C 96 % 1014,4 hPa 0,0 l/m 0 min 0 min 0 W/m 8,4 km/h (2 Bft)
25.02.2015 02:36 2,3 C 0,6 C 96 % 1014,4 hPa 0,0 l/m 0 min 0 min 0 W/m 12,6 km/h (3 Bft)
25.02.2015 02:38 2,3 C 0,6 C 96 % 1014,5 hPa 0,0 l/m 0 min 0 min 0 W/m 14,6 km/h (3 Bft)
25.02.2015 02:40 2,2 C 0,6 C 96 % 1014,6 hPa 0,0 l/m 0 min 0 min 0 W/m 8,4 km/h (2 Bft)
25.02.2015 02:42 2,3 C 0,6 C 96 % 1014,5 hPa 0,0 l/m 0 min 0 min 0 W/m 12,6 km/h (3 Bft)
25.02.2015 02:44 2,2 C 0,6 C 96 % 1014,6 hPa 0,0 l/m 0 min 0 min 0 W/m 14,6 km/h (3 Bft)
25.02.2015 02:46 2,3 C 0,6 C 96 % 1014,6 hPa 0,0 l/m 0 min 0 min 0 W/m 8,4 km/h (2 Bft)
25.02.2015 02:48 2,2 C 0,6 C 96 % 1014,6 hPa 0,0 l/m 0 min 0 min 0 W/m 10,5 km/h (2 Bft)
25.02.2015 02:50 2,2 C 0,6 C 96 % 1014,6 hPa 0,0 l/m 0 min 0 min 0 W/m 16,7 km/h (3 Bft)
25.02.2015 02:52 2,2 C 0,6 C 96 % 1014,6 hPa 0,0 l/m 0 min 0 min 0 W/m 14,6 km/h (3 Bft)
25.02.2015 02:54 2,2 C 0,6 C 96 % 1014,6 hPa 0,0 l/m 0 min 0 min 0 W/m 10,5 km/h (2 Bft)
25.02.2015 02:56 2,2 C 0,6 C 96 % 1014,6 hPa 0,0 l/m 0 min 0 min 0 W/m 12,6 km/h (3 Bft)
25.02.2015 02:58 2,2 C 0,6 C 96 % 1014,6 hPa 0,0 l/m 0 min 0 min 0 W/m 10,5 km/h (2 Bft)
25.02.2015 03:00 2,2 C 0,6 C 96 % 1014,6 hPa 0,0 l/m 0 min 0 min 0 W/m 10,5 km/h (2 Bft)
25.02.2015 03:02 2,2 C 0,6 C 96 % 1014,6 hPa 0,0 l/m 0 min 0 min 0 W/m 12,6 km/h (3 Bft)
25.02.2015 03:04 2,2 C 0,6 C 96 % 1014,7 hPa 0,0 l/m 0 min 0 min 0 W/m 12,6 km/h (3 Bft)
25.02.2015 03:06 2,2 C 0,6 C 96 % 1014,7 hPa 0,0 l/m 0 min 0 min 0 W/m 8,4 km/h (2 Bft)
25.02.2015 03:08 2,2 C 0,6 C 96 % 1014,7 hPa 0,0 l/m 0 min 0 min 0 W/m 10,5 km/h (2 Bft)
25.02.2015 03:10 2,2 C 0,6 C 96 % 1014,6 hPa 0,0 l/m 0 min 0 min 0 W/m 12,6 km/h (3 Bft)
25.02.2015 03:12 2,2 C 0,6 C 96 % 1014,7 hPa 0,0 l/m 0 min 0 min 0 W/m 14,6 km/h (3 Bft)
25.02.2015 03:14 2,2 C 0,6 C 96 % 1014,6 hPa 0,0 l/m 0 min 0 min 0 W/m 12,6 km/h (3 Bft)
25.02.2015 03:16 2,2 C 0,6 C 96 % 1014,6 hPa 0,0 l/m 0 min 0 min 0 W/m 8,4 km/h (2 Bft)
25.02.2015 03:18 2,2 C 0,6 C 96 % 1014,7 hPa 0,0 l/m 0 min 0 min 0 W/m 12,6 km/h (3 Bft)
25.02.2015 03:20 2,2 C 0,6 C 96 % 1014,6 hPa 0,0 l/m 0 min 0 min 0 W/m 10,5 km/h (2 Bft)
25.02.2015 03:22 2,2 C 0,6 C 96 % 1014,6 hPa 0,0 l/m 0 min 0 min 0 W/m 10,5 km/h (2 Bft)
25.02.2015 03:24 2,2 C 0,6 C 96 % 1014,7 hPa 0,0 l/m 0 min 0 min 0 W/m 12,6 km/h (3 Bft)
25.02.2015 03:26 2,2 C 0,6 C 96 % 1014,7 hPa 0,0 l/m 0 min 0 min 0 W/m 10,5 km/h (2 Bft)
25.02.2015 03:28 2,2 C 0,6 C 96 % 1014,7 hPa 0,0 l/m 0 min 0 min 0 W/m 10,5 km/h (2 Bft)
25.02.2015 03:30 2,2 C 0,6 C 96 % 1014,7 hPa 0,0 l/m 0 min 0 min 0 W/m 12,6 km/h (3 Bft)
25.02.2015 03:32 2,1 C 0,6 C 96 % 1014,7 hPa 0,0 l/m 0 min 0 min 0 W/m 16,7 km/h (3 Bft)
25.02.2015 03:34 2,1 C 0,6 C 96 % 1014,6 hPa 0,0 l/m 0 min 0 min 0 W/m 12,6 km/h (3 Bft)
25.02.2015 03:36 2,1 C 0,6 C 96 % 1014,7 hPa 0,0 l/m 0 min 0 min 0 W/m 14,6 km/h (3 Bft)
25.02.2015 03:38 2,1 C 0,6 C 96 % 1014,7 hPa 0,0 l/m 0 min 0 min 0 W/m 14,6 km/h (3 Bft)
25.02.2015 03:40 2,1 C 0,6 C 96 % 1014,7 hPa 0,0 l/m 0 min 0 min 0 W/m 12,6 km/h (3 Bft)
25.02.2015 03:42 2,1 C 0,6 C 96 % 1014,7 hPa 0,0 l/m 0 min 0 min 0 W/m 12,6 km/h (3 Bft)
25.02.2015 03:44 2,1 C 0,6 C 96 % 1014,7 hPa 0,0 l/m 0 min 0 min 0 W/m 10,5 km/h (2 Bft)
25.02.2015 03:46 2,1 C 0,6 C 96 % 1014,7 hPa 0,0 l/m 0 min 0 min 0 W/m 16,7 km/h (3 Bft)
25.02.2015 03:48 2,1 C 0,6 C 96 % 1014,7 hPa 0,0 l/m 0 min 0 min 0 W/m 14,6 km/h (3 Bft)
25.02.2015 03:50 2,2 C 0,6 C 96 % 1014,7 hPa 0,0 l/m 0 min 0 min 0 W/m 14,6 km/h (3 Bft)
25.02.2015 03:52 2,2 C 0,6 C 96 % 1014,7 hPa 0,0 l/m 0 min 0 min 0 W/m 14,6 km/h (3 Bft)
25.02.2015 03:54 2,2 C 0,6 C 96 % 1014,8 hPa 0,0 l/m 0 min 0 min 0 W/m 18,8 km/h (3 Bft)
25.02.2015 03:56 2,2 C 0,6 C 96 % 1014,8 hPa 0,0 l/m 0 min 0 min 0 W/m 14,6 km/h (3 Bft)
25.02.2015 03:58 2,2 C 0,6 C 96 % 1014,8 hPa 0,0 l/m 0 min 0 min 0 W/m 14,6 km/h (3 Bft)
25.02.2015 04:00 2,2 C 0,6 C 96 % 1014,8 hPa 0,0 l/m 0 min 0 min 0 W/m 12,6 km/h (3 Bft)
25.02.2015 04:05 2,1 C 0,6 C 96 % 1014,8 hPa 0,0 l/m 0 min 0 min 0 W/m 12,6 km/h (3 Bft)
25.02.2015 04:06 2,1 C 0,6 C 96 % 1014,8 hPa 0,0 l/m 0 min 0 min 0 W/m 12,6 km/h (3 Bft)
25.02.2015 04:08 2,1 C 0,6 C 96 % 1014,8 hPa 0,0 l/m 0 min 0 min 0 W/m 8,4 km/h (2 Bft)
25.02.2015 04:10 2,1 C 0,6 C 96 % 1014,8 hPa 0,0 l/m 0 min 0 min 0 W/m 12,6 km/h (3 Bft)
25.02.2015 04:12 2,1 C 0,6 C 96 % 1014,8 hPa 0,0 l/m 0 min 0 min 0 W/m 8,4 km/h (2 Bft)
25.02.2015 04:14 2,1 C 0,6 C 96 % 1014,8 hPa 0,0 l/m 0 min 0 min 0 W/m 12,6 km/h (3 Bft)
25.02.2015 04:16 2,1 C 0,6 C 96 % 1014,9 hPa 0,0 l/m 0 min 0 min 0 W/m 12,6 km/h (3 Bft)
25.02.2015 04:18 2,1 C 0,6 C 96 % 1014,9 hPa 0,0 l/m 0 min 0 min 0 W/m 14,6 km/h (3 Bft)
25.02.2015 04:20 2,0 C 0,6 C 96 % 1014,9 hPa 0,0 l/m 0 min 0 min 0 W/m 14,6 km/h (3 Bft)
25.02.2015 04:22 2,0 C 0,6 C 96 % 1014,8 hPa 0,0 l/m 0 min 0 min 0 W/m 14,6 km/h (3 Bft)
25.02.2015 04:24 2,0 C 0,6 C 96 % 1014,9 hPa 0,0 l/m 0 min 0 min 0 W/m 12,6 km/h (3 Bft)
25.02.2015 04:26 1,9 C 0,6 C 96 % 1014,8 hPa 0,0 l/m 0 min 0 min 0 W/m 16,7 km/h (3 Bft)
25.02.2015 04:28 1,9 C 0,6 C 96 % 1014,8 hPa 0,0 l/m 0 min 0 min 0 W/m 14,6 km/h (3 Bft)
25.02.2015 04:30 1,9 C 0,6 C 96 % 1014,8 hPa 0,0 l/m 0 min 0 min 0 W/m 14,6 km/h (3 Bft)
25.02.2015 04:32 1,9 C 0,6 C 96 % 1014,9 hPa 0,0 l/m 0 min 0 min 0 W/m 16,7 km/h (3 Bft)
25.02.2015 04:34 1,9 C 0,6 C 96 % 1014,9 hPa 0,0 l/m 0 min 0 min 0 W/m 12,6 km/h (3 Bft)
25.02.2015 04:36 1,9 C 0,6 C 96 % 1014,9 hPa 0,0 l/m 0 min 0 min 0 W/m 10,5 km/h (2 Bft)
25.02.2015 04:38 1,9 C 0,6 C 96 % 1014,9 hPa 0,0 l/m 0 min 0 min 0 W/m 12,6 km/h (3 Bft)
25.02.2015 04:40 1,9 C 0,6 C 96 % 1014,9 hPa 0,0 l/m 0 min 0 min 0 W/m 12,6 km/h (3 Bft)
25.02.2015 04:42 1,9 C 0,6 C 96 % 1014,9 hPa 0,0 l/m 0 min 0 min 0 W/m 16,7 km/h (3 Bft)
25.02.2015 04:44 1,8 C 0,6 C 96 % 1014,9 hPa 0,0 l/m 0 min 0 min 0 W/m 16,7 km/h (3 Bft)
25.02.2015 04:46 1,8 C 0,6 C 96 % 1014,9 hPa 0,0 l/m 0 min 0 min 0 W/m 14,6 km/h (3 Bft)
25.02.2015 04:48 1,8 C 0,6 C 96 % 1014,9 hPa 0,0 l/m 0 min 0 min 0 W/m 14,6 km/h (3 Bft)
25.02.2015 04:50 1,8 C 0,0 C 96 % 1015,0 hPa 0,0 l/m 0 min 0 min 0 W/m 12,6 km/h (3 Bft)
25.02.2015 04:52 1,8 C 0,0 C 96 % 1014,9 hPa 0,0 l/m 0 min 0 min 0 W/m 12,6 km/h (3 Bft)
25.02.2015 04:54 1,8 C 0,0 C 96 % 1015,0 hPa 0,0 l/m 0 min 0 min 0 W/m 8,4 km/h (2 Bft)
25.02.2015 04:56 1,8 C 0,0 C 96 % 1015,0 hPa 0,0 l/m 0 min 0 min 0 W/m 10,5 km/h (2 Bft)
25.02.2015 04:58 1,7 C 0,0 C 96 % 1015,0 hPa 0,0 l/m 0 min 0 min 0 W/m 8,4 km/h (2 Bft)
25.02.2015 05:00 1,7 C 0,0 C 96 % 1015,0 hPa 0,0 l/m 0 min 0 min 0 W/m 10,5 km/h (2 Bft)
25.02.2015 05:02 1,7 C 0,0 C 96 % 1015,0 hPa 0,0 l/m 0 min 0 min 0 W/m 8,4 km/h (2 Bft)
25.02.2015 05:04 1,7 C 0,0 C 96 % 1015,1 hPa 0,0 l/m 0 min 0 min 0 W/m 10,5 km/h (2 Bft)
25.02.2015 05:06 1,7 C 0,0 C 96 % 1015,1 hPa 0,0 l/m 0 min 0 min 0 W/m 10,5 km/h (2 Bft)
25.02.2015 05:08 1,7 C 0,0 C 96 % 1015,1 hPa 0,0 l/m 0 min 0 min 0 W/m 12,6 km/h (3 Bft)
25.02.2015 05:10 1,7 C 0,0 C 96 % 1015,0 hPa 0,0 l/m 0 min 0 min 0 W/m 10,5 km/h (2 Bft)
25.02.2015 05:12 1,6 C 0,0 C 96 % 1015,1 hPa 0,0 l/m 0 min 0 min 0 W/m 8,4 km/h (2 Bft)
25.02.2015 05:14 1,6 C 0,0 C 96 % 1015,0 hPa 0,0 l/m 0 min 0 min 0 W/m 10,5 km/h (2 Bft)
25.02.2015 05:16 1,6 C 0,0 C 96 % 1015,1 hPa 0,0 l/m 0 min 0 min 0 W/m 12,6 km/h (3 Bft)
25.02.2015 05:18 1,6 C 0,0 C 96 % 1015,1 hPa 0,0 l/m 0 min 0 min 0 W/m 8,4 km/h (2 Bft)
25.02.2015 05:20 1,6 C 0,0 C 96 % 1015,1 hPa 0,0 l/m 0 min 0 min 0 W/m 8,4 km/h (2 Bft)
25.02.2015 05:22 1,6 C 0,0 C 96 % 1015,2 hPa 0,0 l/m 0 min 0 min 0 W/m 14,6 km/h (3 Bft)
25.02.2015 05:24 1,5 C 0,0 C 96 % 1015,2 hPa 0,0 l/m 0 min 0 min 0 W/m 10,5 km/h (2 Bft)
25.02.2015 05:26 1,6 C 0,0 C 96 % 1015,2 hPa 0,0 l/m 0 min 0 min 0 W/m 12,6 km/h (3 Bft)
25.02.2015 05:28 1,5 C 0,0 C 96 % 1015,3 hPa 0,0 l/m 0 min 0 min 0 W/m 14,6 km/h (3 Bft)
25.02.2015 05:30 1,5 C 0,0 C 96 % 1015,2 hPa 0,0 l/m 0 min 0 min 0 W/m 10,5 km/h (2 Bft)
25.02.2015 05:32 1,5 C 0,0 C 96 % 1015,3 hPa 0,0 l/m 0 min 0 min 0 W/m 12,6 km/h (3 Bft)
25.02.2015 05:34 1,4 C 0,0 C 96 % 1015,2 hPa 0,0 l/m 0 min 0 min 0 W/m 10,5 km/h (2 Bft)
25.02.2015 05:36 1,4 C 0,0 C 96 % 1015,2 hPa 0,0 l/m 0 min 0 min 0 W/m 8,4 km/h (2 Bft)
25.02.2015 05:38 1,4 C 0,0 C 96 % 1015,1 hPa 0,0 l/m 0 min 0 min 0 W/m 14,6 km/h (3 Bft)
25.02.2015 05:40 1,4 C 0,0 C 96 % 1015,2 hPa 0,0 l/m 0 min 0 min 0 W/m 10,5 km/h (2 Bft)
25.02.2015 05:42 1,4 C 0,0 C 96 % 1015,2 hPa 0,0 l/m 0 min 0 min 0 W/m 12,6 km/h (3 Bft)
25.02.2015 05:44 1,4 C 0,0 C 96 % 1015,2 hPa 0,0 l/m 0 min 0 min 0 W/m 8,4 km/h (2 Bft)
25.02.2015 05:46 1,4 C 0,0 C 96 % 1015,2 hPa 0,0 l/m 0 min 0 min 0 W/m 10,5 km/h (2 Bft)
25.02.2015 05:48 1,4 C 0,0 C 96 % 1015,2 hPa 0,0 l/m 0 min 0 min 0 W/m 16,7 km/h (3 Bft)
25.02.2015 05:50 1,4 C 0,0 C 96 % 1015,2 hPa 0,0 l/m 0 min 0 min 0 W/m 14,6 km/h (3 Bft)
25.02.2015 05:52 1,4 C 0,0 C 96 % 1015,2 hPa 0,0 l/m 0 min 0 min 0 W/m 14,6 km/h (3 Bft)
25.02.2015 05:54 1,4 C 0,0 C 96 % 1015,2 hPa 0,0 l/m 0 min 0 min 0 W/m 12,6 km/h (3 Bft)
25.02.2015 05:56 1,4 C 0,0 C 96 % 1015,2 hPa 0,0 l/m 0 min 0 min 0 W/m 12,6 km/h (3 Bft)
25.02.2015 05:58 1,4 C 0,0 C 96 % 1015,2 hPa 0,0 l/m 0 min 0 min 0 W/m 10,5 km/h (2 Bft)
25.02.2015 06:00 1,4 C 0,0 C 96 % 1015,2 hPa 0,0 l/m 0 min 0 min 0 W/m 14,6 km/h (3 Bft)
25.02.2015 06:02 1,4 C 0,0 C 96 % 1015,2 hPa 0,0 l/m 0 min 0 min 0 W/m 12,6 km/h (3 Bft)
25.02.2015 06:06 1,4 C 0,0 C 96 % 1015,2 hPa 0,0 l/m 0 min 0 min 0 W/m 10,5 km/h (2 Bft)
25.02.2015 06:08 1,4 C 0,0 C 96 % 1015,3 hPa 0,0 l/m 0 min 0 min 0 W/m 12,6 km/h (3 Bft)
25.02.2015 06:10 1,4 C 0,0 C 96 % 1015,3 hPa 0,0 l/m 0 min 0 min 0 W/m 14,6 km/h (3 Bft)
25.02.2015 06:12 1,4 C 0,0 C 96 % 1015,3 hPa 0,0 l/m 0 min 0 min 0 W/m 10,5 km/h (2 Bft)
25.02.2015 06:14 1,4 C 0,0 C 96 % 1015,3 hPa 0,0 l/m 0 min 0 min 0 W/m 12,6 km/h (3 Bft)
25.02.2015 06:16 1,4 C 0,0 C 96 % 1015,3 hPa 0,0 l/m 0 min 0 min 0 W/m 12,6 km/h (3 Bft)
25.02.2015 06:18 1,4 C 0,0 C 96 % 1015,3 hPa 0,0 l/m 0 min 0 min 0 W/m 12,6 km/h (3 Bft)
25.02.2015 06:20 1,4 C 0,0 C 96 % 1015,3 hPa 0,0 l/m 0 min 0 min 0 W/m 12,6 km/h (3 Bft)
25.02.2015 06:22 1,4 C 0,0 C 96 % 1015,4 hPa 0,0 l/m 0 min 0 min 0 W/m 12,6 km/h (3 Bft)
25.02.2015 06:24 1,4 C 0,0 C 96 % 1015,3 hPa 0,0 l/m 0 min 0 min 0 W/m 10,5 km/h (2 Bft)
25.02.2015 06:26 1,4 C 0,0 C 96 % 1015,3 hPa 0,0 l/m 0 min 0 min 0 W/m 12,6 km/h (3 Bft)
25.02.2015 06:28 1,4 C 0,0 C 96 % 1015,3 hPa 0,0 l/m 0 min 0 min 0 W/m 10,5 km/h (2 Bft)
25.02.2015 06:30 1,3 C 0,0 C 96 % 1015,2 hPa 0,0 l/m 0 min 0 min 0 W/m 12,6 km/h (3 Bft)
25.02.2015 06:32 1,3 C 0,0 C 96 % 1015,2 hPa 0,0 l/m 0 min 0 min 0 W/m 14,6 km/h (3 Bft)
25.02.2015 06:34 1,3 C 0,0 C 96 % 1015,2 hPa 0,0 l/m 0 min 0 min 0 W/m 14,6 km/h (3 Bft)
25.02.2015 06:36 1,3 C 0,0 C 96 % 1015,2 hPa 0,0 l/m 0 min 0 min 0 W/m 10,5 km/h (2 Bft)
25.02.2015 06:38 1,4 C 0,0 C 96 % 1015,3 hPa 0,0 l/m 0 min 0 min 0 W/m 14,6 km/h (3 Bft)
25.02.2015 06:40 1,4 C 0,0 C 96 % 1015,3 hPa 0,0 l/m 0 min 0 min 0 W/m 14,6 km/h (3 Bft)
25.02.2015 06:42 1,4 C 0,0 C 96 % 1015,3 hPa 0,0 l/m 0 min 0 min 0 W/m 12,6 km/h (3 Bft)
25.02.2015 06:44 1,4 C 0,0 C 96 % 1015,2 hPa 0,0 l/m 0 min 0 min 0 W/m 10,5 km/h (2 Bft)
25.02.2015 06:46 1,4 C 0,0 C 96 % 1015,2 hPa 0,0 l/m 0 min 0 min 0 W/m 12,6 km/h (3 Bft)
25.02.2015 06:48 1,4 C 0,0 C 96 % 1015,2 hPa 0,0 l/m 0 min 0 min 0 W/m 14,6 km/h (3 Bft)
25.02.2015 06:50 1,3 C 0,0 C 96 % 1015,1 hPa 0,0 l/m 0 min 0 min 0 W/m 14,6 km/h (3 Bft)
25.02.2015 06:52 1,3 C 0,0 C 96 % 1015,2 hPa 0,0 l/m 0 min 0 min 0 W/m 18,8 km/h (3 Bft)
25.02.2015 06:54 1,3 C 0,0 C 96 % 1015,2 hPa 0,0 l/m 0 min 0 min 0 W/m 16,7 km/h (3 Bft)
25.02.2015 06:56 1,4 C 0,0 C 97 % 1015,1 hPa 0,0 l/m 0 min 0 min 0 W/m 12,6 km/h (3 Bft)
25.02.2015 06:58 1,3 C 0,0 C 97 % 1015,1 hPa 0,0 l/m 0 min 0 min 0 W/m 10,5 km/h (2 Bft)
25.02.2015 07:00 1,3 C 0,0 C 96 % 1015,1 hPa 0,0 l/m 0 min 0 min 0 W/m 16,7 km/h (3 Bft)
25.02.2015 07:02 1,4 C 0,0 C 97 % 1015,1 hPa 0,0 l/m 0 min 0 min 0 W/m 14,6 km/h (3 Bft)
25.02.2015 07:04 1,4 C 0,0 C 97 % 1015,1 hPa 0,0 l/m 0 min 0 min 0 W/m 14,6 km/h (3 Bft)
25.02.2015 07:06 1,4 C 0,0 C 97 % 1015,1 hPa 0,0 l/m 0 min 0 min 0 W/m 10,5 km/h (2 Bft)
25.02.2015 07:08 1,4 C 0,0 C 97 % 1015,1 hPa 0,0 l/m 0 min 0 min 0 W/m 18,8 km/h (3 Bft)
25.02.2015 07:10 1,4 C 0,0 C 97 % 1015,2 hPa 0,0 l/m 0 min 0 min 0 W/m 16,7 km/h (3 Bft)
25.02.2015 07:12 1,4 C 0,0 C 97 % 1015,2 hPa 0,0 l/m 0 min 0 min 0 W/m 14,6 km/h (3 Bft)
25.02.2015 07:14 1,4 C 0,0 C 97 % 1015,3 hPa 0,0 l/m 0 min 0 min 0 W/m 14,6 km/h (3 Bft)
25.02.2015 07:16 1,4 C 0,0 C 97 % 1015,3 hPa 0,0 l/m 0 min 0 min 0 W/m 12,6 km/h (3 Bft)
25.02.2015 07:18 1,4 C 0,0 C 97 % 1015,3 hPa 0,0 l/m 0 min 0 min 0 W/m 16,7 km/h (3 Bft)
25.02.2015 07:20 1,4 C 0,0 C 97 % 1015,3 hPa 0,0 l/m 0 min 0 min 0 W/m 14,6 km/h (3 Bft)
25.02.2015 07:22 1,4 C 0,0 C 97 % 1015,3 hPa 0,0 l/m 0 min 0 min 1 W/m 14,6 km/h (3 Bft)
25.02.2015 07:24 1,4 C 0,0 C 97 % 1015,3 hPa 0,0 l/m 0 min 0 min 5 W/m 12,6 km/h (3 Bft)
25.02.2015 07:26 1,4 C 0,0 C 97 % 1015,3 hPa 0,0 l/m 0 min 0 min 5 W/m 18,8 km/h (3 Bft)
25.02.2015 07:28 1,4 C 0,0 C 97 % 1015,3 hPa 0,0 l/m 0 min 0 min 7 W/m 10,5 km/h (2 Bft)
25.02.2015 07:30 1,5 C 0,0 C 97 % 1015,3 hPa 0,0 l/m 0 min 0 min 7 W/m 14,6 km/h (3 Bft)
25.02.2015 07:32 1,4 C 0,0 C 97 % 1015,3 hPa 0,0 l/m 0 min 0 min 9 W/m 14,6 km/h (3 Bft)
25.02.2015 07:34 1,5 C 0,0 C 97 % 1015,3 hPa 0,0 l/m 0 min 0 min 9 W/m 12,6 km/h (3 Bft)
25.02.2015 07:36 1,5 C 0,0 C 97 % 1015,4 hPa 0,0 l/m 0 min 0 min 11 W/m 12,6 km/h (3 Bft)
25.02.2015 07:38 1,5 C 0,0 C 97 % 1015,5 hPa 0,0 l/m 0 min 0 min 11 W/m 10,5 km/h (2 Bft)
25.02.2015 07:40 1,5 C 0,0 C 97 % 1015,5 hPa 0,0 l/m 2 min 0 min 12 W/m 10,5 km/h (2 Bft)
25.02.2015 07:42 1,5 C 0,0 C 97 % 1015,5 hPa 0,0 l/m 2 min 0 min 14 W/m 12,6 km/h (3 Bft)
25.02.2015 07:44 1,5 C 0,0 C 97 % 1015,5 hPa 0,0 l/m 2 min 0 min 16 W/m 16,7 km/h (3 Bft)
25.02.2015 07:46 1,5 C 0,0 C 97 % 1015,5 hPa 0,0 l/m 2 min 0 min 18 W/m 16,7 km/h (3 Bft)
25.02.2015 07:48 1,5 C 0,0 C 97 % 1015,5 hPa 0,0 l/m 2 min 0 min 21 W/m 14,6 km/h (3 Bft)
25.02.2015 07:50 1,5 C 0,0 C 97 % 1015,4 hPa 0,0 l/m 2 min 0 min 23 W/m 8,4 km/h (2 Bft)
25.02.2015 07:52 1,5 C 0,0 C 97 % 1015,5 hPa 0,0 l/m 2 min 0 min 25 W/m 12,6 km/h (3 Bft)
25.02.2015 07:54 1,5 C 0,0 C 97 % 1015,5 hPa 0,0 l/m 2 min 0 min 28 W/m 12,6 km/h (3 Bft)
25.02.2015 07:56 1,5 C 0,0 C 97 % 1015,5 hPa 0,0 l/m 2 min 0 min 30 W/m 18,8 km/h (3 Bft)
25.02.2015 07:58 1,5 C 0,6 C 97 % 1015,5 hPa 0,0 l/m 2 min 0 min 33 W/m 18,8 km/h (3 Bft)
25.02.2015 08:00 1,5 C 0,6 C 97 % 1015,5 hPa 0,0 l/m 2 min 0 min 36 W/m 12,6 km/h (3 Bft)
25.02.2015 08:02 1,5 C 0,6 C 97 % 1015,4 hPa 0,0 l/m 2 min 0 min 40 W/m 14,6 km/h (3 Bft)
25.02.2015 08:04 1,5 C 0,6 C 97 % 1015,5 hPa 0,0 l/m 2 min 0 min 42 W/m 14,6 km/h (3 Bft)
25.02.2015 08:06 1,6 C 0,6 C 97 % 1015,5 hPa 0,0 l/m 2 min 0 min 46 W/m 16,7 km/h (3 Bft)
25.02.2015 08:08 1,6 C 0,6 C 97 % 1015,5 hPa 0,0 l/m 2 min 0 min 50 W/m 12,6 km/h (3 Bft)
25.02.2015 08:10 1,6 C 0,6 C 97 % 1015,6 hPa 0,0 l/m 2 min 0 min 54 W/m 16,7 km/h (3 Bft)
25.02.2015 08:12 1,6 C 0,6 C 97 % 1015,6 hPa 0,0 l/m 2 min 0 min 58 W/m 14,6 km/h (3 Bft)
25.02.2015 08:14 1,6 C 0,6 C 97 % 1015,7 hPa 0,0 l/m 2 min 0 min 63 W/m 10,5 km/h (2 Bft)
25.02.2015 08:16 1,6 C 0,6 C 97 % 1015,6 hPa 0,0 l/m 2 min 0 min 67 W/m 8,4 km/h (2 Bft)
25.02.2015 08:18 1,6 C 0,6 C 97 % 1015,6 hPa 0,0 l/m 2 min 0 min 71 W/m 12,6 km/h (3 Bft)
25.02.2015 08:20 1,6 C 0,6 C 97 % 1015,7 hPa 0,0 l/m 2 min 0 min 71 W/m 18,8 km/h (3 Bft)
25.02.2015 08:22 1,6 C 0,6 C 97 % 1015,8 hPa 0,0 l/m 2 min 0 min 78 W/m 16,7 km/h (3 Bft)
25.02.2015 08:24 1,7 C 0,6 C 97 % 1015,8 hPa 0,0 l/m 2 min 0 min 83 W/m 12,6 km/h (3 Bft)
25.02.2015 08:26 1,7 C 0,6 C 97 % 1015,9 hPa 0,0 l/m 2 min 0 min 81 W/m 10,5 km/h (2 Bft)
25.02.2015 08:28 1,7 C 0,6 C 97 % 1015,9 hPa 0,0 l/m 2 min 0 min 88 W/m 8,4 km/h (2 Bft)
25.02.2015 08:30 1,7 C 0,6 C 97 % 1015,9 hPa 0,0 l/m 2 min 0 min 96 W/m 12,6 km/h (3 Bft)
25.02.2015 08:32 1,7 C 0,6 C 97 % 1015,9 hPa 0,0 l/m 2 min 0 min 101 W/m 10,5 km/h (2 Bft)
25.02.2015 08:34 1,7 C 0,6 C 97 % 1016,0 hPa 0,0 l/m 2 min 0 min 105 W/m 12,6 km/h (3 Bft)
25.02.2015 08:36 1,7 C 0,6 C 97 % 1016,0 hPa 0,0 l/m 2 min 0 min 111 W/m 12,6 km/h (3 Bft)
25.02.2015 08:38 1,8 C 0,6 C 97 % 1016,1 hPa 0,0 l/m 2 min 0 min 114 W/m 14,6 km/h (3 Bft)
25.02.2015 08:40 1,8 C 0,6 C 97 % 1016,0 hPa 0,0 l/m 2 min 0 min 120 W/m 6,3 km/h (2 Bft)
25.02.2015 08:42 1,8 C 0,6 C 97 % 1015,9 hPa 0,0 l/m 2 min 0 min 124 W/m 10,5 km/h (2 Bft)
25.02.2015 08:44 1,8 C 0,6 C 97 % 1016,1 hPa 0,0 l/m 2 min 0 min 129 W/m 16,7 km/h (3 Bft)
25.02.2015 08:46 1,9 C 1,1 C 97 % 1016,0 hPa 0,0 l/m 2 min 0 min 134 W/m 16,7 km/h (3 Bft)
25.02.2015 08:48 1,9 C 1,1 C 97 % 1016,1 hPa 0,0 l/m 2 min 0 min 140 W/m 14,6 km/h (3 Bft)
25.02.2015 08:50 1,9 C 1,1 C 97 % 1016,1 hPa 0,0 l/m 2 min 0 min 145 W/m 12,6 km/h (3 Bft)
25.02.2015 08:52 1,9 C 1,1 C 97 % 1016,2 hPa 0,0 l/m 2 min 0 min 150 W/m 10,5 km/h (2 Bft)
25.02.2015 08:54 2,0 C 1,1 C 97 % 1016,2 hPa 0,0 l/m 2 min 0 min 154 W/m 12,6 km/h (3 Bft)
25.02.2015 08:56 2,0 C 1,1 C 97 % 1016,2 hPa 0,0 l/m 2 min 0 min 160 W/m 12,6 km/h (3 Bft)
25.02.2015 08:58 2,1 C 1,1 C 97 % 1016,2 hPa 0,0 l/m 2 min 0 min 165 W/m 10,5 km/h (2 Bft)
25.02.2015 09:00 2,1 C 1,1 C 97 % 1016,1 hPa 0,0 l/m 2 min 0 min 170 W/m 10,5 km/h (2 Bft)
25.02.2015 09:02 2,1 C 1,1 C 97 % 1016,1 hPa 0,0 l/m 2 min 0 min 175 W/m 14,6 km/h (3 Bft)
25.02.2015 09:04 2,1 C 1,1 C 97 % 1016,2 hPa 0,0 l/m 2 min 0 min 179 W/m 12,6 km/h (3 Bft)
25.02.2015 09:06 2,2 C 1,1 C 97 % 1016,1 hPa 0,0 l/m 2 min 0 min 185 W/m 14,6 km/h (3 Bft)
25.02.2015 09:08 2,2 C 1,1 C 97 % 1016,1 hPa 0,0 l/m 2 min 0 min 191 W/m 14,6 km/h (3 Bft)
25.02.2015 09:10 2,3 C 1,1 C 97 % 1016,1 hPa 0,0 l/m 2 min 0 min 197 W/m 8,4 km/h (2 Bft)
25.02.2015 09:12 2,3 C 1,1 C 97 % 1016,1 hPa 0,0 l/m 2 min 0 min 203 W/m 12,6 km/h (3 Bft)
25.02.2015 09:14 2,4 C 1,1 C 97 % 1016,1 hPa 0,0 l/m 2 min 0 min 205 W/m 10,5 km/h (2 Bft)
25.02.2015 09:16 2,4 C 1,1 C 97 % 1016,1 hPa 0,2 l/m 2 min 0 min 212 W/m 14,6 km/h (3 Bft)
25.02.2015 09:18 2,4 C 1,7 C 97 % 1016,2 hPa 0,0 l/m 2 min 0 min 206 W/m 12,6 km/h (3 Bft)
25.02.2015 09:20 2,5 C 1,7 C 97 % 1016,1 hPa 0,0 l/m 2 min 0 min 222 W/m 14,6 km/h (3 Bft)
25.02.2015 09:22 2,6 C 1,7 C 97 % 1016,2 hPa 0,0 l/m 2 min 0 min 225 W/m 14,6 km/h (3 Bft)
25.02.2015 09:24 2,7 C 1,7 C 97 % 1016,2 hPa 0,0 l/m 2 min 0 min 219 W/m 12,6 km/h (3 Bft)
25.02.2015 09:26 2,8 C 1,7 C 97 % 1016,2 hPa 0,0 l/m 2 min 0 min 182 W/m 14,6 km/h (3 Bft)
25.02.2015 09:28 2,9 C 1,7 C 97 % 1016,1 hPa 0,0 l/m 2 min 0 min 153 W/m 12,6 km/h (3 Bft)
25.02.2015 09:30 2,9 C 1,7 C 97 % 1016,2 hPa 0,0 l/m 2 min 0 min 218 W/m 10,5 km/h (2 Bft)
25.02.2015 09:32 3,0 C 1,7 C 97 % 1016,2 hPa 0,0 l/m 2 min 0 min 228 W/m 12,6 km/h (3 Bft)
25.02.2015 09:34 3,1 C 1,7 C 97 % 1016,2 hPa 0,0 l/m 2 min 0 min 214 W/m 12,6 km/h (3 Bft)
25.02.2015 09:36 3,2 C 1,7 C 97 % 1016,2 hPa 0,0 l/m 2 min 0 min 213 W/m 10,5 km/h (2 Bft)
25.02.2015 09:38 3,2 C 1,7 C 97 % 1016,2 hPa 0,0 l/m 2 min 0 min 189 W/m 12,6 km/h (3 Bft)
25.02.2015 09:40 3,3 C 2,2 C 97 % 1016,2 hPa 0,0 l/m 2 min 0 min 254 W/m 16,7 km/h (3 Bft)
25.02.2015 09:42 3,4 C 2,2 C 97 % 1016,3 hPa 0,0 l/m 2 min 0 min 264 W/m 16,7 km/h (3 Bft)
25.02.2015 09:44 3,5 C 2,2 C 97 % 1016,3 hPa 0,0 l/m 2 min 0 min 258 W/m 14,6 km/h (3 Bft)
25.02.2015 09:46 3,6 C 2,2 C 97 % 1016,2 hPa 0,0 l/m 2 min 0 min 273 W/m 10,5 km/h (2 Bft)
25.02.2015 09:48 3,7 C 2,2 C 97 % 1016,3 hPa 0,0 l/m 2 min 0 min 278 W/m 12,6 km/h (3 Bft)
25.02.2015 09:50 3,7 C 2,2 C 97 % 1016,2 hPa 0,0 l/m 2 min 0 min 253 W/m 14,6 km/h (3 Bft)
25.02.2015 09:52 3,8 C 2,2 C 97 % 1016,2 hPa 0,2 l/m 2 min 0 min 249 W/m 10,5 km/h (2 Bft)
25.02.2015 09:54 3,9 C 2,8 C 97 % 1016,3 hPa 0,0 l/m 2 min 0 min 290 W/m 20,9 km/h (4 Bft)
25.02.2015 09:56 4,0 C 2,8 C 97 % 1016,3 hPa 0,0 l/m 2 min 0 min 290 W/m 16,7 km/h (3 Bft)
25.02.2015 09:58 4,1 C 2,8 C 97 % 1016,4 hPa 0,0 l/m 2 min 0 min 297 W/m 12,6 km/h (3 Bft)
25.02.2015 10:00 4,2 C 2,8 C 97 % 1016,4 hPa 0,0 l/m 2 min 0 min 303 W/m 10,5 km/h (2 Bft)
25.02.2015 10:02 4,2 C 2,8 C 97 % 1016,5 hPa 0,0 l/m 2 min 0 min 305 W/m 10,5 km/h (2 Bft)
25.02.2015 10:04 4,3 C 2,8 C 97 % 1016,4 hPa 0,0 l/m 2 min 0 min 309 W/m 8,4 km/h (2 Bft)
25.02.2015 10:06 4,4 C 2,8 C 97 % 1016,4 hPa 0,0 l/m 2 min 0 min 313 W/m 10,5 km/h (2 Bft)
25.02.2015 10:08 4,4 C 2,8 C 97 % 1016,4 hPa 0,0 l/m 2 min 0 min 317 W/m 10,5 km/h (2 Bft)
25.02.2015 10:10 4,6 C 3,3 C 97 % 1016,3 hPa 0,0 l/m 2 min 0 min 322 W/m 10,5 km/h (2 Bft)
25.02.2015 10:12 4,6 C 3,3 C 97 % 1016,4 hPa 0,0 l/m 2 min 0 min 324 W/m 10,5 km/h (2 Bft)
25.02.2015 10:14 4,7 C 3,3 C 97 % 1016,4 hPa 0,0 l/m 2 min 0 min 327 W/m 10,5 km/h (2 Bft)
25.02.2015 10:16 4,8 C 3,3 C 97 % 1016,4 hPa 0,0 l/m 2 min 0 min 328 W/m 12,6 km/h (3 Bft)
25.02.2015 10:18 4,9 C 3,3 C 97 % 1016,5 hPa 0,0 l/m 2 min 0 min 334 W/m 12,6 km/h (3 Bft)
25.02.2015 10:20 5,1 C 3,3 C 97 % 1016,4 hPa 0,0 l/m 2 min 0 min 339 W/m 14,6 km/h (3 Bft)
25.02.2015 10:22 5,2 C 3,9 C 97 % 1016,5 hPa 0,0 l/m 2 min 0 min 349 W/m 14,6 km/h (3 Bft)
25.02.2015 10:24 5,3 C 3,9 C 97 % 1016,5 hPa 0,0 l/m 2 min 0 min 354 W/m 12,6 km/h (3 Bft)
25.02.2015 10:26 5,3 C 3,9 C 97 % 1016,5 hPa 0,0 l/m 2 min 0 min 362 W/m 12,6 km/h (3 Bft)
25.02.2015 10:28 5,4 C 3,9 C 97 % 1016,5 hPa 0,0 l/m 2 min 0 min 377 W/m 16,7 km/h (3 Bft)
25.02.2015 10:30 5,5 C 3,9 C 97 % 1016,5 hPa 0,0 l/m 2 min 0 min 389 W/m 20,9 km/h (4 Bft)
25.02.2015 10:32 5,6 C 4,4 C 96 % 1016,5 hPa 0,0 l/m 2 min 0 min 400 W/m 16,7 km/h (3 Bft)
25.02.2015 10:34 5,7 C 4,4 C 96 % 1016,5 hPa 0,0 l/m 2 min 0 min 408 W/m 16,7 km/h (3 Bft)
25.02.2015 10:36 5,8 C 4,4 C 96 % 1016,5 hPa 0,0 l/m 2 min 0 min 416 W/m 14,6 km/h (3 Bft)
25.02.2015 10:38 5,9 C 4,4 C 96 % 1016,5 hPa 0,0 l/m 2 min 0 min 417 W/m 18,8 km/h (3 Bft)
25.02.2015 10:40 6,1 C 4,4 C 95 % 1016,6 hPa 0,0 l/m 2 min 0 min 408 W/m 23,0 km/h (4 Bft)
25.02.2015 10:42 6,1 C 4,4 C 95 % 1016,6 hPa 0,0 l/m 2 min 0 min 351 W/m 20,9 km/h (4 Bft)
25.02.2015 10:44 6,1 C 4,4 C 94 % 1016,6 hPa 0,0 l/m 2 min 0 min 326 W/m 25,1 km/h (4 Bft)
25.02.2015 10:46 6,2 C 4,4 C 94 % 1016,6 hPa 0,0 l/m 2 min 0 min 345 W/m 14,6 km/h (3 Bft)
25.02.2015 10:48 6,2 C 4,4 C 93 % 1016,6 hPa 0,0 l/m 2 min 0 min 375 W/m 14,6 km/h (3 Bft)
25.02.2015 10:50 6,3 C 4,4 C 92 % 1016,6 hPa 0,0 l/m 2 min 0 min 429 W/m 16,7 km/h (3 Bft)
25.02.2015 10:52 6,4 C 5,0 C 92 % 1016,6 hPa 0,0 l/m 2 min 0 min 452 W/m 20,9 km/h (4 Bft)
25.02.2015 10:54 6,4 C 5,0 C 92 % 1016,6 hPa 0,0 l/m 2 min 0 min 463 W/m 14,6 km/h (3 Bft)
25.02.2015 10:56 6,6 C 5,0 C 91 % 1016,5 hPa 0,0 l/m 2 min 0 min 468 W/m 16,7 km/h (3 Bft)
25.02.2015 10:58 6,7 C 5,6 C 91 % 1016,6 hPa 0,0 l/m 2 min 0 min 492 W/m 23,0 km/h (4 Bft)
25.02.2015 11:00 6,7 C 5,6 C 90 % 1016,6 hPa 0,0 l/m 2 min 0 min 485 W/m 20,9 km/h (4 Bft)
25.02.2015 11:02 6,8 C 5,6 C 89 % 1016,6 hPa 0,0 l/m 2 min 0 min 477 W/m 23,0 km/h (4 Bft)
25.02.2015 11:04 6,9 C 5,6 C 89 % 1016,6 hPa 0,0 l/m 2 min 0 min 497 W/m 23,0 km/h (4 Bft)
25.02.2015 11:06 6,9 C 5,6 C 88 % 1016,6 hPa 0,0 l/m 2 min 0 min 503 W/m 25,1 km/h (4 Bft)
25.02.2015 11:08 7,0 C 5,6 C 88 % 1016,6 hPa 0,0 l/m 2 min 0 min 493 W/m 31,4 km/h (5 Bft)
25.02.2015 11:10 7,0 C 5,6 C 87 % 1016,5 hPa 0,0 l/m 2 min 0 min 441 W/m 16,7 km/h (3 Bft)
25.02.2015 11:12 7,1 C 5,6 C 87 % 1016,6 hPa 0,0 l/m 2 min 0 min 304 W/m 20,9 km/h (4 Bft)
25.02.2015 11:14 7,1 C 5,0 C 86 % 1016,6 hPa 0,0 l/m 0 min 0 min 200 W/m 20,9 km/h (4 Bft)
25.02.2015 11:16 7,1 C 5,0 C 85 % 1016,5 hPa 0,0 l/m 0 min 0 min 172 W/m 16,7 km/h (3 Bft)
25.02.2015 11:18 7,1 C 5,0 C 85 % 1016,6 hPa 0,0 l/m 0 min 0 min 140 W/m 23,0 km/h (4 Bft)
25.02.2015 11:20 7,0 C 4,4 C 84 % 1016,6 hPa 0,0 l/m 0 min 0 min 116 W/m 23,0 km/h (4 Bft)
25.02.2015 11:22 6,9 C 4,4 C 84 % 1016,5 hPa 0,0 l/m 0 min 0 min 113 W/m 20,9 km/h (4 Bft)
25.02.2015 11:24 6,9 C 4,4 C 84 % 1016,6 hPa 0,0 l/m 0 min 0 min 175 W/m 18,8 km/h (3 Bft)
25.02.2015 11:26 6,8 C 4,4 C 84 % 1016,6 hPa 0,0 l/m 0 min 0 min 194 W/m 27,2 km/h (4 Bft)
25.02.2015 11:28 6,8 C 4,4 C 84 % 1016,6 hPa 0,0 l/m 2 min 0 min 296 W/m 16,7 km/h (3 Bft)
25.02.2015 11:30 6,8 C 5,0 C 84 % 1016,6 hPa 0,0 l/m 2 min 0 min 465 W/m 23,0 km/h (4 Bft)
25.02.2015 11:32 6,9 C 5,0 C 85 % 1016,6 hPa 0,0 l/m 2 min 0 min 485 W/m 18,8 km/h (3 Bft)
25.02.2015 11:34 6,9 C 5,6 C 85 % 1016,7 hPa 0,0 l/m 2 min 0 min 495 W/m 20,9 km/h (4 Bft)
25.02.2015 11:36 7,0 C 5,6 C 85 % 1016,7 hPa 0,0 l/m 2 min 0 min 500 W/m 20,9 km/h (4 Bft)
25.02.2015 11:38 7,1 C 5,6 C 85 % 1016,7 hPa 0,0 l/m 2 min 0 min 405 W/m 20,9 km/h (4 Bft)
25.02.2015 11:40 7,2 C 5,6 C 85 % 1016,7 hPa 0,0 l/m 0 min 0 min 199 W/m 16,7 km/h (3 Bft)
25.02.2015 11:42 7,2 C 5,6 C 84 % 1016,7 hPa 0,0 l/m 0 min 0 min 193 W/m 14,6 km/h (3 Bft)
25.02.2015 11:44 7,2 C 5,6 C 84 % 1016,7 hPa 0,0 l/m 0 min 0 min 176 W/m 20,9 km/h (4 Bft)
25.02.2015 11:46 7,2 C 5,6 C 84 % 1016,7 hPa 0,0 l/m 2 min 0 min 242 W/m 23,0 km/h (4 Bft)
25.02.2015 11:48 7,3 C 5,6 C 84 % 1016,7 hPa 0,0 l/m 2 min 0 min 264 W/m 25,1 km/h (4 Bft)
25.02.2015 11:50 7,3 C 6,1 C 84 % 1016,7 hPa 0,0 l/m 2 min 0 min 575 W/m 14,6 km/h (3 Bft)
25.02.2015 11:52 7,4 C 6,7 C 84 % 1016,7 hPa 0,0 l/m 2 min 0 min 611 W/m 14,6 km/h (3 Bft)
25.02.2015 11:54 7,5 C 7,2 C 85 % 1016,7 hPa 0,0 l/m 2 min 0 min 616 W/m 23,0 km/h (4 Bft)
25.02.2015 11:56 7,6 C 6,7 C 84 % 1016,7 hPa 0,0 l/m 2 min 0 min 410 W/m 20,9 km/h (4 Bft)
25.02.2015 11:58 7,7 C 6,7 C 84 % 1016,7 hPa 0,0 l/m 0 min 0 min 233 W/m 20,9 km/h (4 Bft)
25.02.2015 12:00 7,7 C 6,7 C 84 % 1016,7 hPa 0,0 l/m 0 min 0 min 167 W/m 18,8 km/h (3 Bft)
25.02.2015 12:02 7,7 C 6,1 C 83 % 1016,7 hPa 0,0 l/m 0 min 0 min 149 W/m 16,7 km/h (3 Bft)
25.02.2015 12:06 7,7 C 6,1 C 83 % 1016,7 hPa 0,0 l/m 0 min 0 min 149 W/m 16,7 km/h (3 Bft)
25.02.2015 12:08 7,7 C 6,1 C 83 % 1016,7 hPa 0,0 l/m 0 min 0 min 222 W/m 18,8 km/h (3 Bft)
25.02.2015 12:10 7,7 C 6,1 C 83 % 1016,7 hPa 0,0 l/m 0 min 0 min 216 W/m 18,8 km/h (3 Bft)
25.02.2015 12:12 7,7 C 6,1 C 83 % 1016,7 hPa 0,0 l/m 0 min 0 min 216 W/m 23,0 km/h (4 Bft)
25.02.2015 12:14 7,7 C 6,1 C 83 % 1016,7 hPa 0,0 l/m 0 min 0 min 227 W/m 25,1 km/h (4 Bft)
25.02.2015 12:16 7,7 C 6,1 C 82 % 1016,7 hPa 0,0 l/m 2 min 0 min 336 W/m 25,1 km/h (4 Bft)
25.02.2015 12:18 7,7 C 6,1 C 82 % 1016,7 hPa 0,0 l/m 2 min 0 min 276 W/m 27,2 km/h (4 Bft)
25.02.2015 12:20 7,7 C 6,7 C 82 % 1016,7 hPa 0,0 l/m 2 min 0 min 321 W/m 18,8 km/h (3 Bft)
25.02.2015 12:22 7,7 C 6,7 C 82 % 1016,7 hPa 0,0 l/m 2 min 0 min 323 W/m 25,1 km/h (4 Bft)
25.02.2015 12:24 7,7 C 6,7 C 82 % 1016,7 hPa 0,0 l/m 2 min 0 min 386 W/m 18,8 km/h (3 Bft)
25.02.2015 12:26 7,8 C 6,7 C 82 % 1016,6 hPa 0,0 l/m 2 min 0 min 480 W/m 18,8 km/h (3 Bft)
25.02.2015 12:28 7,9 C 7,2 C 83 % 1016,6 hPa 0,0 l/m 2 min 0 min 463 W/m 25,1 km/h (4 Bft)
25.02.2015 12:30 7,9 C 7,2 C 83 % 1016,6 hPa 0,0 l/m 2 min 0 min 406 W/m 20,9 km/h (4 Bft)
25.02.2015 12:32 8,1 C 7,2 C 83 % 1016,6 hPa 0,0 l/m 2 min 0 min 396 W/m 23,0 km/h (4 Bft)
25.02.2015 12:34 8,1 C 7,2 C 82 % 1016,6 hPa 0,0 l/m 2 min 0 min 381 W/m 16,7 km/h (3 Bft)
25.02.2015 12:36 8,1 C 7,2 C 82 % 1016,6 hPa 0,0 l/m 2 min 0 min 270 W/m 18,8 km/h (3 Bft)
25.02.2015 12:38 8,2 C 7,2 C 82 % 1016,6 hPa 0,0 l/m 2 min 0 min 312 W/m 18,8 km/h (3 Bft)
25.02.2015 12:40 8,2 C 7,2 C 81 % 1016,6 hPa 0,0 l/m 2 min 0 min 266 W/m 23,0 km/h (4 Bft)
25.02.2015 12:42 8,2 C 7,2 C 81 % 1016,5 hPa 0,0 l/m 2 min 0 min 268 W/m 16,7 km/h (3 Bft)
25.02.2015 12:44 8,2 C 7,2 C 81 % 1016,6 hPa 0,0 l/m 2 min 0 min 322 W/m 25,1 km/h (4 Bft)
25.02.2015 12:46 8,2 C 7,2 C 81 % 1016,5 hPa 0,0 l/m 2 min 0 min 356 W/m 25,1 km/h (4 Bft)
25.02.2015 12:48 8,2 C 7,8 C 81 % 1016,4 hPa 0,0 l/m 2 min 0 min 386 W/m 25,1 km/h (4 Bft)
25.02.2015 12:50 8,2 C 7,2 C 81 % 1016,4 hPa 0,0 l/m 2 min 0 min 354 W/m 20,9 km/h (4 Bft)
25.02.2015 12:52 8,3 C 7,8 C 81 % 1016,4 hPa 0,0 l/m 2 min 0 min 340 W/m 25,1 km/h (4 Bft)
25.02.2015 12:54 8,2 C 7,2 C 80 % 1016,4 hPa 0,0 l/m 2 min 0 min 318 W/m 27,2 km/h (4 Bft)
25.02.2015 12:56 8,2 C 7,2 C 80 % 1016,4 hPa 0,0 l/m 2 min 0 min 282 W/m 23,0 km/h (4 Bft)
25.02.2015 12:58 8,2 C 7,2 C 80 % 1016,4 hPa 0,0 l/m 2 min 0 min 313 W/m 20,9 km/h (4 Bft)
25.02.2015 13:00 8,2 C 7,2 C 80 % 1016,4 hPa 0,0 l/m 2 min 0 min 261 W/m 27,2 km/h (4 Bft)
25.02.2015 13:02 8,1 C 7,2 C 80 % 1016,4 hPa 0,0 l/m 2 min 0 min 263 W/m 23,0 km/h (4 Bft)
25.02.2015 13:04 8,1 C 7,2 C 80 % 1016,4 hPa 0,0 l/m 2 min 0 min 284 W/m 20,9 km/h (4 Bft)
25.02.2015 13:06 8,1 C 7,2 C 81 % 1016,4 hPa 0,0 l/m 2 min 0 min 360 W/m 23,0 km/h (4 Bft)
25.02.2015 13:08 8,1 C 7,2 C 81 % 1016,4 hPa 0,0 l/m 2 min 0 min 373 W/m 18,8 km/h (3 Bft)
25.02.2015 13:10 8,1 C 7,2 C 81 % 1016,3 hPa 0,0 l/m 0 min 0 min 197 W/m 18,8 km/h (3 Bft)
25.02.2015 13:12 8,1 C 6,7 C 81 % 1016,4 hPa 0,0 l/m 0 min 0 min 161 W/m 29,3 km/h (5 Bft)
25.02.2015 13:14 8,0 C 6,7 C 80 % 1016,4 hPa 0,0 l/m 0 min 0 min 192 W/m 27,2 km/h (4 Bft)
25.02.2015 13:16 8,0 C 6,7 C 80 % 1016,3 hPa 0,0 l/m 2 min 0 min 254 W/m 25,1 km/h (4 Bft)
25.02.2015 13:18 7,9 C 7,2 C 80 % 1016,3 hPa 0,0 l/m 2 min 0 min 300 W/m 25,1 km/h (4 Bft)
25.02.2015 13:20 7,9 C 7,2 C 80 % 1016,4 hPa 0,0 l/m 2 min 0 min 298 W/m 18,8 km/h (3 Bft)
25.02.2015 13:22 7,9 C 7,2 C 80 % 1016,4 hPa 0,0 l/m 2 min 0 min 271 W/m 20,9 km/h (4 Bft)
25.02.2015 13:24 7,9 C 7,2 C 80 % 1016,3 hPa 0,0 l/m 0 min 0 min 231 W/m 18,8 km/h (3 Bft)
25.02.2015 13:26 7,9 C 7,2 C 80 % 1016,4 hPa 0,0 l/m 0 min 0 min 222 W/m 18,8 km/h (3 Bft)
25.02.2015 13:28 7,9 C 7,2 C 80 % 1016,3 hPa 0,0 l/m 0 min 0 min 173 W/m 20,9 km/h (4 Bft)
25.02.2015 13:30 7,9 C 7,2 C 80 % 1016,3 hPa 0,0 l/m 0 min 0 min 178 W/m 23,0 km/h (4 Bft)
25.02.2015 13:32 7,9 C 7,2 C 80 % 1016,3 hPa 0,0 l/m 0 min 0 min 157 W/m 14,6 km/h (3 Bft)
25.02.2015 13:34 7,9 C 7,2 C 81 % 1016,3 hPa 0,0 l/m 0 min 0 min 186 W/m 18,8 km/h (3 Bft)
25.02.2015 13:36 7,9 C 7,2 C 81 % 1016,2 hPa 0,0 l/m 0 min 0 min 181 W/m 20,9 km/h (4 Bft)
25.02.2015 13:38 7,9 C 7,2 C 81 % 1016,3 hPa 0,0 l/m 0 min 0 min 153 W/m 20,9 km/h (4 Bft)
25.02.2015 13:40 7,9 C 6,7 C 81 % 1016,3 hPa 0,0 l/m 0 min 0 min 126 W/m 14,6 km/h (3 Bft)
25.02.2015 13:42 7,9 C 6,7 C 81 % 1016,3 hPa 0,0 l/m 0 min 0 min 156 W/m 14,6 km/h (3 Bft)
25.02.2015 13:44 7,8 C 6,7 C 81 % 1016,2 hPa 0,0 l/m 0 min 0 min 200 W/m 16,7 km/h (3 Bft)
25.02.2015 13:46 7,8 C 6,7 C 81 % 1016,2 hPa 0,0 l/m 0 min 0 min 213 W/m 25,1 km/h (4 Bft)
25.02.2015 13:48 7,8 C 6,7 C 81 % 1016,2 hPa 0,0 l/m 0 min 0 min 183 W/m 18,8 km/h (3 Bft)
25.02.2015 13:50 7,7 C 6,7 C 81 % 1016,2 hPa 0,0 l/m 0 min 0 min 186 W/m 25,1 km/h (4 Bft)
25.02.2015 13:52 7,7 C 6,7 C 81 % 1016,2 hPa 0,0 l/m 0 min 0 min 187 W/m 27,2 km/h (4 Bft)
25.02.2015 13:54 7,7 C 6,7 C 81 % 1016,2 hPa 0,0 l/m 0 min 0 min 164 W/m 16,7 km/h (3 Bft)
25.02.2015 13:56 7,7 C 6,7 C 81 % 1016,2 hPa 0,0 l/m 0 min 0 min 139 W/m 8,4 km/h (2 Bft)
25.02.2015 13:58 7,7 C 6,7 C 81 % 1016,1 hPa 0,0 l/m 0 min 0 min 123 W/m 20,9 km/h (4 Bft)
25.02.2015 14:00 7,6 C 6,7 C 81 % 1016,2 hPa 0,0 l/m 0 min 0 min 138 W/m 20,9 km/h (4 Bft)
25.02.2015 14:02 7,6 C 6,7 C 82 % 1016,2 hPa 0,0 l/m 0 min 2 min 155 W/m 27,2 km/h (4 Bft)
25.02.2015 14:04 7,6 C 6,1 C 82 % 1016,2 hPa 0,0 l/m 0 min 0 min 143 W/m 23,0 km/h (4 Bft)
25.02.2015 14:06 7,6 C 5,6 C 82 % 1016,2 hPa 0,0 l/m 0 min 0 min 125 W/m 27,2 km/h (4 Bft)
25.02.2015 14:08 7,5 C 5,6 C 82 % 1016,2 hPa 0,0 l/m 0 min 0 min 176 W/m 25,1 km/h (4 Bft)
25.02.2015 14:10 7,4 C 6,1 C 83 % 1016,2 hPa 0,0 l/m 2 min 0 min 231 W/m 20,9 km/h (4 Bft)
25.02.2015 14:12 7,4 C 6,1 C 83 % 1016,3 hPa 0,0 l/m 2 min 2 min 273 W/m 27,2 km/h (4 Bft)
25.02.2015 14:14 7,4 C 6,1 C 84 % 1016,2 hPa 0,0 l/m 0 min 0 min 217 W/m 20,9 km/h (4 Bft)
25.02.2015 14:16 7,4 C 6,1 C 84 % 1016,3 hPa 0,0 l/m 0 min 0 min 169 W/m 20,9 km/h (4 Bft)
25.02.2015 14:18 7,3 C 5,6 C 84 % 1016,2 hPa 0,0 l/m 0 min 0 min 139 W/m 20,9 km/h (4 Bft)
25.02.2015 14:20 7,3 C 5,6 C 84 % 1016,3 hPa 0,0 l/m 0 min 0 min 141 W/m 25,1 km/h (4 Bft)
25.02.2015 14:22 7,2 C 5,6 C 84 % 1016,3 hPa 0,0 l/m 0 min 0 min 140 W/m 14,6 km/h (3 Bft)
25.02.2015 14:24 7,2 C 5,6 C 85 % 1016,3 hPa 0,0 l/m 0 min 0 min 137 W/m 14,6 km/h (3 Bft)
25.02.2015 14:26 7,2 C 5,6 C 85 % 1016,3 hPa 0,0 l/m 0 min 0 min 127 W/m 20,9 km/h (4 Bft)
25.02.2015 14:28 7,2 C 5,6 C 85 % 1016,3 hPa 0,0 l/m 0 min 0 min 123 W/m 16,7 km/h (3 Bft)
25.02.2015 14:30 7,2 C 5,6 C 85 % 1016,3 hPa 0,0 l/m 0 min 0 min 122 W/m 14,6 km/h (3 Bft)
25.02.2015 14:32 7,1 C 5,6 C 85 % 1016,3 hPa 0,0 l/m 0 min 0 min 106 W/m 14,6 km/h (3 Bft)
25.02.2015 14:34 7,1 C 5,0 C 85 % 1016,3 hPa 0,0 l/m 0 min 0 min 87 W/m 12,6 km/h (3 Bft)
25.02.2015 14:36 7,1 C 5,0 C 86 % 1016,2 hPa 0,0 l/m 0 min 0 min 71 W/m 20,9 km/h (4 Bft)
25.02.2015 14:38 7,0 C 5,6 C 86 % 1016,3 hPa 0,0 l/m 0 min 0 min 70 W/m 12,6 km/h (3 Bft)
25.02.2015 14:40 7,0 C 5,0 C 86 % 1016,2 hPa 0,0 l/m 0 min 0 min 80 W/m 16,7 km/h (3 Bft)
25.02.2015 14:42 7,0 C 5,0 C 86 % 1016,2 hPa 0,0 l/m 0 min 0 min 91 W/m 12,6 km/h (3 Bft)
25.02.2015 14:44 6,9 C 5,0 C 86 % 1016,3 hPa 0,0 l/m 0 min 0 min 96 W/m 20,9 km/h (4 Bft)
25.02.2015 14:46 6,9 C 5,0 C 86 % 1016,3 hPa 0,0 l/m 0 min 0 min 84 W/m 14,6 km/h (3 Bft)
25.02.2015 14:48 6,9 C 5,0 C 86 % 1016,3 hPa 0,0 l/m 0 min 0 min 81 W/m 14,6 km/h (3 Bft)
25.02.2015 14:50 6,8 C 5,0 C 86 % 1016,3 hPa 0,0 l/m 0 min 0 min 80 W/m 12,6 km/h (3 Bft)
25.02.2015 14:52 6,8 C 5,0 C 86 % 1016,3 hPa 0,0 l/m 0 min 0 min 79 W/m 14,6 km/h (3 Bft)
25.02.2015 14:54 6,8 C 5,0 C 86 % 1016,3 hPa 0,0 l/m 0 min 0 min 86 W/m 8,4 km/h (2 Bft)
25.02.2015 14:56 6,8 C 5,6 C 87 % 1016,2 hPa 0,0 l/m 0 min 0 min 95 W/m 14,6 km/h (3 Bft)
25.02.2015 14:58 6,8 C 5,6 C 87 % 1016,2 hPa 0,0 l/m 0 min 0 min 102 W/m 14,6 km/h (3 Bft)
25.02.2015 15:00 6,8 C 5,6 C 87 % 1016,2 hPa 0,0 l/m 0 min 0 min 101 W/m 12,6 km/h (3 Bft)
25.02.2015 15:02 6,8 C 5,6 C 87 % 1016,2 hPa 0,0 l/m 0 min 0 min 82 W/m 12,6 km/h (3 Bft)
25.02.2015 15:04 6,8 C 5,6 C 87 % 1016,2 hPa 0,0 l/m 0 min 0 min 68 W/m 12,6 km/h (3 Bft)
25.02.2015 15:06 6,7 C 5,6 C 87 % 1016,2 hPa 0,0 l/m 0 min 0 min 71 W/m 14,6 km/h (3 Bft)
25.02.2015 15:08 6,7 C 5,6 C 87 % 1016,2 hPa 0,0 l/m 0 min 0 min 69 W/m 8,4 km/h (2 Bft)
25.02.2015 15:10 6,7 C 5,6 C 87 % 1016,2 hPa 0,0 l/m 0 min 0 min 59 W/m 8,4 km/h (2 Bft)
25.02.2015 15:12 6,7 C 5,6 C 87 % 1016,2 hPa 0,0 l/m 0 min 0 min 57 W/m 6,3 km/h (2 Bft)
25.02.2015 15:14 6,7 C 5,6 C 87 % 1016,3 hPa 0,0 l/m 0 min 0 min 61 W/m 12,6 km/h (3 Bft)
25.02.2015 15:16 6,7 C 5,6 C 87 % 1016,3 hPa 0,0 l/m 0 min 0 min 72 W/m 14,6 km/h (3 Bft)
25.02.2015 15:18 6,7 C 5,6 C 87 % 1016,2 hPa 0,0 l/m 0 min 0 min 78 W/m 8,4 km/h (2 Bft)
25.02.2015 15:20 6,7 C 5,6 C 87 % 1016,3 hPa 0,0 l/m 0 min 0 min 81 W/m 6,3 km/h (2 Bft)
25.02.2015 15:22 6,7 C 6,1 C 86 % 1016,2 hPa 0,0 l/m 0 min 0 min 94 W/m 8,4 km/h (2 Bft)
25.02.2015 15:24 6,7 C 6,1 C 87 % 1016,2 hPa 0,0 l/m 0 min 0 min 104 W/m 6,3 km/h (2 Bft)
25.02.2015 15:26 6,7 C 6,1 C 87 % 1016,2 hPa 0,0 l/m 0 min 0 min 101 W/m 14,6 km/h (3 Bft)
25.02.2015 15:28 6,7 C 6,1 C 87 % 1016,2 hPa 0,0 l/m 0 min 0 min 101 W/m 12,6 km/h (3 Bft)
25.02.2015 15:30 6,8 C 6,1 C 87 % 1016,2 hPa 0,0 l/m 0 min 0 min 101 W/m 14,6 km/h (3 Bft)
25.02.2015 15:32 6,8 C 6,1 C 87 % 1016,2 hPa 0,0 l/m 0 min 0 min 104 W/m 6,3 km/h (2 Bft)
25.02.2015 15:34 6,8 C 6,1 C 86 % 1016,2 hPa 0,0 l/m 0 min 0 min 95 W/m 10,5 km/h (2 Bft)
25.02.2015 15:36 6,8 C 6,1 C 86 % 1016,3 hPa 0,0 l/m 0 min 0 min 84 W/m 14,6 km/h (3 Bft)
25.02.2015 15:38 6,8 C 6,1 C 86 % 1016,3 hPa 0,0 l/m 0 min 0 min 69 W/m 16,7 km/h (3 Bft)
25.02.2015 15:40 6,8 C 6,1 C 85 % 1016,2 hPa 0,0 l/m 0 min 0 min 71 W/m 14,6 km/h (3 Bft)
25.02.2015 15:42 6,8 C 6,1 C 85 % 1016,3 hPa 0,0 l/m 0 min 0 min 76 W/m 10,5 km/h (2 Bft)
25.02.2015 15:44 6,8 C 6,1 C 85 % 1016,3 hPa 0,0 l/m 0 min 0 min 71 W/m 12,6 km/h (3 Bft)
25.02.2015 15:46 6,8 C 6,1 C 85 % 1016,3 hPa 0,0 l/m 0 min 0 min 76 W/m 12,6 km/h (3 Bft)
25.02.2015 15:48 6,9 C 6,1 C 85 % 1016,3 hPa 0,0 l/m 0 min 0 min 70 W/m 10,5 km/h (2 Bft)
25.02.2015 15:50 6,9 C 6,1 C 84 % 1016,3 hPa 0,0 l/m 0 min 0 min 60 W/m 6,3 km/h (2 Bft)
25.02.2015 15:52 6,9 C 5,6 C 84 % 1016,4 hPa 0,0 l/m 0 min 0 min 50 W/m 14,6 km/h (3 Bft)
25.02.2015 15:54 6,9 C 5,6 C 84 % 1016,4 hPa 0,0 l/m 0 min 0 min 48 W/m 12,6 km/h (3 Bft)
25.02.2015 15:56 6,9 C 5,6 C 84 % 1016,3 hPa 0,0 l/m 0 min 0 min 42 W/m 10,5 km/h (2 Bft)
25.02.2015 15:58 6,9 C 5,6 C 84 % 1016,4 hPa 0,0 l/m 0 min 0 min 40 W/m 12,6 km/h (3 Bft)
25.02.2015 16:00 6,9 C 5,6 C 84 % 1016,4 hPa 0,0 l/m 0 min 0 min 40 W/m 10,5 km/h (2 Bft)
25.02.2015 16:02 6,9 C 5,6 C 84 % 1016,4 hPa 0,0 l/m 0 min 0 min 36 W/m 20,9 km/h (4 Bft)
25.02.2015 16:04 6,9 C 5,6 C 84 % 1016,4 hPa 0,0 l/m 0 min 0 min 35 W/m 16,7 km/h (3 Bft)
25.02.2015 16:06 6,9 C 5,6 C 83 % 1016,5 hPa 0,0 l/m 0 min 0 min 36 W/m 10,5 km/h (2 Bft)
25.02.2015 16:08 6,9 C 5,6 C 83 % 1016,5 hPa 0,0 l/m 0 min 0 min 42 W/m 12,6 km/h (3 Bft)
25.02.2015 16:10 6,9 C 5,6 C 83 % 1016,5 hPa 0,0 l/m 0 min 0 min 47 W/m 16,7 km/h (3 Bft)
25.02.2015 16:12 6,9 C 5,6 C 83 % 1016,6 hPa 0,0 l/m 0 min 0 min 43 W/m 14,6 km/h (3 Bft)
25.02.2015 16:14 6,9 C 5,6 C 83 % 1016,6 hPa 0,0 l/m 0 min 0 min 40 W/m 10,5 km/h (2 Bft)
25.02.2015 16:16 6,9 C 5,6 C 83 % 1016,7 hPa 0,0 l/m 0 min 0 min 34 W/m 8,4 km/h (2 Bft)
25.02.2015 16:18 6,9 C 5,6 C 83 % 1016,7 hPa 0,0 l/m 0 min 0 min 24 W/m 10,5 km/h (2 Bft)
25.02.2015 16:20 6,9 C 5,0 C 83 % 1016,7 hPa 0,0 l/m 0 min 0 min 18 W/m 10,5 km/h (2 Bft)
25.02.2015 16:22 6,8 C 5,0 C 83 % 1016,7 hPa 0,0 l/m 0 min 0 min 15 W/m 12,6 km/h (3 Bft)
25.02.2015 16:24 6,8 C 5,0 C 83 % 1016,8 hPa 0,0 l/m 0 min 0 min 13 W/m 14,6 km/h (3 Bft)
25.02.2015 16:26 6,8 C 5,0 C 83 % 1016,7 hPa 0,0 l/m 0 min 0 min 12 W/m 14,6 km/h (3 Bft)
25.02.2015 16:28 6,8 C 5,0 C 83 % 1016,7 hPa 0,0 l/m 0 min 0 min 12 W/m 10,5 km/h (2 Bft)
25.02.2015 16:30 6,8 C 5,0 C 83 % 1016,8 hPa 0,0 l/m 0 min 0 min 16 W/m 12,6 km/h (3 Bft)
25.02.2015 16:32 6,8 C 5,0 C 83 % 1016,8 hPa 0,0 l/m 0 min 0 min 16 W/m 10,5 km/h (2 Bft)
25.02.2015 16:34 6,8 C 5,0 C 83 % 1016,7 hPa 0,0 l/m 0 min 0 min 16 W/m 10,5 km/h (2 Bft)
25.02.2015 16:36 6,8 C 5,0 C 83 % 1016,8 hPa 0,0 l/m 0 min 0 min 14 W/m 8,4 km/h (2 Bft)
25.02.2015 16:38 6,7 C 5,0 C 83 % 1016,8 hPa 0,0 l/m 0 min 0 min 10 W/m 10,5 km/h (2 Bft)
25.02.2015 16:40 6,7 C 5,0 C 84 % 1016,8 hPa 0,0 l/m 0 min 0 min 7 W/m 12,6 km/h (3 Bft)
25.02.2015 16:42 6,7 C 5,0 C 84 % 1016,8 hPa 0,0 l/m 0 min 0 min 7 W/m 16,7 km/h (3 Bft)
25.02.2015 16:44 6,7 C 5,0 C 83 % 1016,8 hPa 0,0 l/m 0 min 0 min 8 W/m 23,0 km/h (4 Bft)
25.02.2015 16:46 6,7 C 4,4 C 84 % 1016,8 hPa 0,0 l/m 0 min 0 min 10 W/m 18,8 km/h (3 Bft)
25.02.2015 16:48 6,7 C 4,4 C 84 % 1016,8 hPa 0,0 l/m 0 min 2 min 11 W/m 12,6 km/h (3 Bft)
25.02.2015 16:50 6,6 C 4,4 C 84 % 1016,8 hPa 0,0 l/m 0 min 2 min 13 W/m 18,8 km/h (3 Bft)
25.02.2015 16:52 6,6 C 4,4 C 85 % 1016,9 hPa 0,0 l/m 0 min 2 min 19 W/m 23,0 km/h (4 Bft)
25.02.2015 16:53 6,6 C 3,9 C 85 % 1016,9 hPa 0,0 l/m 0 min 1 min 28 W/m 12,6 km/h (3 Bft)
25.02.2015 16:54 6,6 C 3,9 C 85 % 1017,0 hPa 0,0 l/m 0 min 1 min 34 W/m 20,9 km/h (4 Bft)
25.02.2015 16:55 6,5 C 3,9 C 85 % 1016,9 hPa 0,0 l/m 0 min 1 min 35 W/m 20,9 km/h (4 Bft)
25.02.2015 16:56 6,5 C 3,9 C 85 % 1016,9 hPa 0,2 l/m 0 min 1 min 37 W/m 18,8 km/h (3 Bft)
25.02.2015 16:57 6,4 C 3,9 C 86 % 1016,9 hPa 0,0 l/m 0 min 1 min 40 W/m 14,6 km/h (3 Bft)
25.02.2015 16:58 6,4 C 3,9 C 86 % 1016,9 hPa 0,0 l/m 0 min 1 min 40 W/m 14,6 km/h (3 Bft)
25.02.2015 17:00 6,4 C 3,9 C 86 % 1016,9 hPa 0,0 l/m 0 min 2 min 44 W/m 8,4 km/h (2 Bft)
25.02.2015 17:02 6,4 C 3,9 C 87 % 1016,9 hPa 0,0 l/m 0 min 2 min 45 W/m 10,5 km/h (2 Bft)
25.02.2015 17:04 6,4 C 3,9 C 87 % 1017,0 hPa 0,0 l/m 0 min 2 min 52 W/m 8,4 km/h (2 Bft)
25.02.2015 17:06 6,4 C 3,9 C 87 % 1016,9 hPa 0,0 l/m 0 min 2 min 56 W/m 10,5 km/h (2 Bft)
25.02.2015 17:08 6,3 C 3,9 C 87 % 1017,0 hPa 0,0 l/m 0 min 2 min 61 W/m 8,4 km/h (2 Bft)
25.02.2015 17:10 6,3 C 3,9 C 88 % 1017,0 hPa 0,0 l/m 0 min 2 min 63 W/m 14,6 km/h (3 Bft)
25.02.2015 17:12 6,2 C 3,9 C 88 % 1017,1 hPa 0,0 l/m 0 min 2 min 59 W/m 20,9 km/h (4 Bft)
25.02.2015 17:14 6,2 C 3,9 C 88 % 1017,0 hPa 0,0 l/m 0 min 2 min 52 W/m 14,6 km/h (3 Bft)
25.02.2015 17:16 6,2 C 3,9 C 89 % 1017,0 hPa 0,0 l/m 0 min 2 min 43 W/m 10,5 km/h (2 Bft)
25.02.2015 17:18 6,1 C 3,9 C 89 % 1017,0 hPa 0,0 l/m 0 min 2 min 34 W/m 10,5 km/h (2 Bft)
25.02.2015 17:20 6,1 C 3,9 C 89 % 1017,2 hPa 0,0 l/m 0 min 2 min 26 W/m 12,6 km/h (3 Bft)
25.02.2015 17:22 6,1 C 3,9 C 89 % 1017,2 hPa 0,0 l/m 0 min 2 min 21 W/m 10,5 km/h (2 Bft)
25.02.2015 17:24 6,0 C 3,9 C 89 % 1017,3 hPa 0,0 l/m 0 min 2 min 18 W/m 8,4 km/h (2 Bft)
25.02.2015 17:26 6,0 C 3,9 C 89 % 1017,3 hPa 0,0 l/m 0 min 2 min 15 W/m 16,7 km/h (3 Bft)
25.02.2015 17:28 5,9 C 3,9 C 89 % 1017,3 hPa 0,0 l/m 0 min 2 min 12 W/m 10,5 km/h (2 Bft)
25.02.2015 17:30 5,9 C 3,9 C 90 % 1017,3 hPa 0,0 l/m 0 min 2 min 11 W/m 8,4 km/h (2 Bft)
25.02.2015 17:32 5,8 C 3,9 C 89 % 1017,3 hPa 0,0 l/m 0 min 0 min 12 W/m 12,6 km/h (3 Bft)
25.02.2015 17:34 5,8 C 3,9 C 90 % 1017,3 hPa 0,0 l/m 0 min 0 min 11 W/m 10,5 km/h (2 Bft)
25.02.2015 17:36 5,8 C 3,3 C 90 % 1017,3 hPa 0,0 l/m 0 min 0 min 11 W/m 12,6 km/h (3 Bft)
25.02.2015 17:38 5,7 C 3,3 C 90 % 1017,3 hPa 0,0 l/m 0 min 0 min 9 W/m 8,4 km/h (2 Bft)
25.02.2015 17:40 5,7 C 3,3 C 90 % 1017,3 hPa 0,0 l/m 0 min 0 min 9 W/m 8,4 km/h (2 Bft)
25.02.2015 17:42 5,7 C 3,3 C 90 % 1017,3 hPa 0,0 l/m 0 min 0 min 9 W/m 6,3 km/h (2 Bft)
25.02.2015 17:44 5,7 C 3,3 C 90 % 1017,3 hPa 0,0 l/m 0 min 0 min 8 W/m 6,3 km/h (2 Bft)
25.02.2015 17:46 5,6 C 3,3 C 90 % 1017,3 hPa 0,0 l/m 0 min 0 min 7 W/m 8,4 km/h (2 Bft)
25.02.2015 17:48 5,6 C 3,3 C 90 % 1017,3 hPa 0,0 l/m 0 min 0 min 7 W/m 6,3 km/h (2 Bft)
25.02.2015 17:50 5,6 C 3,3 C 90 % 1017,4 hPa 0,0 l/m 0 min 0 min 5 W/m 18,8 km/h (3 Bft)
25.02.2015 17:52 5,6 C 3,3 C 90 % 1017,3 hPa 0,0 l/m 0 min 0 min 5 W/m 16,7 km/h (3 Bft)
25.02.2015 17:54 5,5 C 3,3 C 90 % 1017,3 hPa 0,0 l/m 0 min 0 min 5 W/m 16,7 km/h (3 Bft)
25.02.2015 17:56 5,5 C 3,3 C 90 % 1017,3 hPa 0,0 l/m 0 min 0 min 1 W/m 14,6 km/h (3 Bft)
25.02.2015 17:58 5,4 C 3,3 C 90 % 1017,4 hPa 0,0 l/m 0 min 0 min 0 W/m 18,8 km/h (3 Bft)
25.02.2015 18:00 5,4 C 3,3 C 90 % 1017,3 hPa 0,0 l/m 0 min 0 min 0 W/m 18,8 km/h (3 Bft)
25.02.2015 18:02 5,4 C 3,3 C 90 % 1017,3 hPa 0,0 l/m 0 min 0 min 0 W/m 18,8 km/h (3 Bft)
25.02.2015 18:06 5,3 C 3,3 C 90 % 1017,4 hPa 0,0 l/m 0 min 0 min 0 W/m 16,7 km/h (3 Bft)
25.02.2015 18:08 5,3 C 3,3 C 90 % 1017,4 hPa 0,0 l/m 0 min 0 min 0 W/m 20,9 km/h (4 Bft)
25.02.2015 18:10 5,3 C 3,3 C 90 % 1017,4 hPa 0,0 l/m 0 min 0 min 0 W/m 14,6 km/h (3 Bft)
25.02.2015 18:12 5,3 C 3,3 C 90 % 1017,4 hPa 0,0 l/m 0 min 0 min 0 W/m 14,6 km/h (3 Bft)
25.02.2015 18:14 5,3 C 3,3 C 90 % 1017,5 hPa 0,0 l/m 0 min 0 min 0 W/m 14,6 km/h (3 Bft)
25.02.2015 18:16 5,3 C 3,3 C 90 % 1017,5 hPa 0,0 l/m 0 min 0 min 0 W/m 14,6 km/h (3 Bft)
25.02.2015 18:18 5,2 C 3,3 C 90 % 1017,6 hPa 0,0 l/m 0 min 0 min 0 W/m 14,6 km/h (3 Bft)
25.02.2015 18:20 5,2 C 3,3 C 90 % 1017,6 hPa 0,0 l/m 0 min 0 min 0 W/m 16,7 km/h (3 Bft)
25.02.2015 18:22 5,2 C 3,3 C 90 % 1017,6 hPa 0,0 l/m 0 min 0 min 0 W/m 16,7 km/h (3 Bft)
25.02.2015 18:24 5,2 C 3,3 C 90 % 1017,7 hPa 0,0 l/m 0 min 0 min 0 W/m 14,6 km/h (3 Bft)
25.02.2015 18:26 5,2 C 3,3 C 90 % 1017,7 hPa 0,0 l/m 0 min 0 min 0 W/m 16,7 km/h (3 Bft)
25.02.2015 18:28 5,2 C 3,3 C 90 % 1017,7 hPa 0,0 l/m 0 min 0 min 0 W/m 20,9 km/h (4 Bft)
25.02.2015 18:30 5,2 C 3,3 C 90 % 1017,7 hPa 0,0 l/m 0 min 0 min 0 W/m 16,7 km/h (3 Bft)
25.02.2015 18:32 5,2 C 3,3 C 90 % 1017,8 hPa 0,0 l/m 0 min 0 min 0 W/m 20,9 km/h (4 Bft)
25.02.2015 18:34 5,2 C 3,3 C 90 % 1017,8 hPa 0,0 l/m 0 min 0 min 0 W/m 16,7 km/h (3 Bft)
25.02.2015 18:36 5,2 C 3,3 C 90 % 1017,7 hPa 0,0 l/m 0 min 0 min 0 W/m 16,7 km/h (3 Bft)
25.02.2015 18:38 5,2 C 3,3 C 90 % 1017,7 hPa 0,0 l/m 0 min 0 min 0 W/m 14,6 km/h (3 Bft)
25.02.2015 18:40 5,2 C 3,3 C 90 % 1017,8 hPa 0,0 l/m 0 min 0 min 0 W/m 14,6 km/h (3 Bft)
25.02.2015 18:42 5,2 C 3,3 C 90 % 1017,8 hPa 0,0 l/m 0 min 0 min 0 W/m 16,7 km/h (3 Bft)
25.02.2015 18:44 5,2 C 3,3 C 90 % 1017,8 hPa 0,0 l/m 0 min 0 min 0 W/m 10,5 km/h (2 Bft)
25.02.2015 18:46 5,2 C 3,3 C 90 % 1017,8 hPa 0,0 l/m 0 min 0 min 0 W/m 12,6 km/h (3 Bft)
25.02.2015 18:48 5,2 C 3,3 C 90 % 1017,8 hPa 0,0 l/m 0 min 0 min 0 W/m 10,5 km/h (2 Bft)
25.02.2015 18:50 5,2 C 3,3 C 90 % 1017,8 hPa 0,0 l/m 0 min 0 min 0 W/m 12,6 km/h (3 Bft)
25.02.2015 18:52 5,2 C 3,3 C 90 % 1017,9 hPa 0,0 l/m 0 min 0 min 0 W/m 14,6 km/h (3 Bft)
25.02.2015 18:54 5,2 C 3,3 C 90 % 1017,9 hPa 0,0 l/m 0 min 0 min 0 W/m 12,6 km/h (3 Bft)
25.02.2015 18:56 5,2 C 3,3 C 90 % 1017,9 hPa 0,0 l/m 0 min 0 min 0 W/m 8,4 km/h (2 Bft)
25.02.2015 18:58 5,2 C 3,3 C 90 % 1017,9 hPa 0,0 l/m 0 min 0 min 0 W/m 8,4 km/h (2 Bft)
25.02.2015 19:00 5,2 C 3,3 C 90 % 1017,9 hPa 0,0 l/m 0 min 0 min 0 W/m 10,5 km/h (2 Bft)
25.02.2015 19:02 5,2 C 3,3 C 90 % 1017,9 hPa 0,0 l/m 0 min 0 min 0 W/m 14,6 km/h (3 Bft)
25.02.2015 19:04 5,2 C 3,3 C 90 % 1018,0 hPa 0,0 l/m 0 min 0 min 0 W/m 14,6 km/h (3 Bft)
25.02.2015 19:06 5,2 C 3,3 C 90 % 1017,9 hPa 0,0 l/m 0 min 0 min 0 W/m 10,5 km/h (2 Bft)
25.02.2015 19:08 5,1 C 3,3 C 90 % 1018,0 hPa 0,0 l/m 0 min 0 min 0 W/m 8,4 km/h (2 Bft)
25.02.2015 19:10 5,1 C 3,3 C 90 % 1017,9 hPa 0,0 l/m 0 min 0 min 0 W/m 10,5 km/h (2 Bft)
25.02.2015 19:12 5,1 C 3,3 C 90 % 1017,9 hPa 0,0 l/m 0 min 0 min 0 W/m 14,6 km/h (3 Bft)
25.02.2015 19:14 5,1 C 3,3 C 91 % 1018,0 hPa 0,0 l/m 0 min 0 min 0 W/m 14,6 km/h (3 Bft)
25.02.2015 19:16 5,1 C 3,3 C 91 % 1018,0 hPa 0,0 l/m 0 min 0 min 0 W/m 10,5 km/h (2 Bft)
25.02.2015 19:18 5,1 C 3,3 C 91 % 1018,2 hPa 0,0 l/m 0 min 0 min 0 W/m 10,5 km/h (2 Bft)
25.02.2015 19:20 5,1 C 3,3 C 91 % 1018,2 hPa 0,0 l/m 0 min 0 min 0 W/m 10,5 km/h (2 Bft)
25.02.2015 19:22 5,1 C 3,3 C 91 % 1018,2 hPa 0,0 l/m 0 min 0 min 0 W/m 8,4 km/h (2 Bft)
25.02.2015 19:24 5,1 C 3,3 C 91 % 1018,2 hPa 0,0 l/m 0 min 0 min 0 W/m 8,4 km/h (2 Bft)
25.02.2015 19:26 5,1 C 3,3 C 91 % 1018,2 hPa 0,0 l/m 0 min 0 min 0 W/m 10,5 km/h (2 Bft)
25.02.2015 19:28 5,0 C 3,3 C 91 % 1018,2 hPa 0,0 l/m 0 min 0 min 0 W/m 14,6 km/h (3 Bft)
25.02.2015 19:30 5,0 C 3,3 C 91 % 1018,2 hPa 0,0 l/m 0 min 0 min 0 W/m 12,6 km/h (3 Bft)
25.02.2015 19:32 5,0 C 3,3 C 91 % 1018,2 hPa 0,0 l/m 0 min 0 min 0 W/m 8,4 km/h (2 Bft)
25.02.2015 19:34 5,0 C 3,3 C 91 % 1018,3 hPa 0,0 l/m 0 min 0 min 0 W/m 10,5 km/h (2 Bft)
25.02.2015 19:36 5,0 C 3,3 C 91 % 1018,3 hPa 0,0 l/m 0 min 0 min 0 W/m 6,3 km/h (2 Bft)
25.02.2015 19:38 5,0 C 3,3 C 91 % 1018,3 hPa 0,0 l/m 0 min 0 min 0 W/m 6,3 km/h (2 Bft)
25.02.2015 19:40 5,0 C 3,3 C 91 % 1018,3 hPa 0,0 l/m 0 min 0 min 0 W/m 10,5 km/h (2 Bft)
25.02.2015 19:42 4,9 C 3,3 C 91 % 1018,4 hPa 0,0 l/m 0 min 0 min 0 W/m 10,5 km/h (2 Bft)
25.02.2015 19:44 5,0 C 3,3 C 91 % 1018,4 hPa 0,0 l/m 0 min 0 min 0 W/m 8,4 km/h (2 Bft)
25.02.2015 19:46 4,9 C 3,3 C 91 % 1018,3 hPa 0,0 l/m 0 min 0 min 0 W/m 6,3 km/h (2 Bft)
25.02.2015 19:48 4,9 C 3,3 C 91 % 1018,4 hPa 0,0 l/m 0 min 0 min 0 W/m 12,6 km/h (3 Bft)
25.02.2015 19:50 4,9 C 3,3 C 91 % 1018,4 hPa 0,0 l/m 0 min 0 min 0 W/m 6,3 km/h (2 Bft)
25.02.2015 19:52 4,9 C 3,3 C 91 % 1018,4 hPa 0,0 l/m 0 min 0 min 0 W/m 6,3 km/h (2 Bft)
25.02.2015 19:54 4,9 C 3,3 C 91 % 1018,4 hPa 0,0 l/m 0 min 2 min 0 W/m 4,2 km/h (1 Bft)
25.02.2015 19:56 4,9 C 3,3 C 91 % 1018,4 hPa 0,0 l/m 0 min 2 min 0 W/m 8,4 km/h (2 Bft)
25.02.2015 19:58 4,9 C 3,3 C 91 % 1018,4 hPa 0,0 l/m 0 min 2 min 0 W/m 8,4 km/h (2 Bft)
25.02.2015 20:00 4,9 C 3,3 C 91 % 1018,4 hPa 0,0 l/m 0 min 2 min 0 W/m 8,4 km/h (2 Bft)
25.02.2015 20:02 4,9 C 2,8 C 91 % 1018,4 hPa 0,2 l/m 0 min 2 min 0 W/m 8,4 km/h (2 Bft)
25.02.2015 20:04 4,9 C 2,8 C 91 % 1018,4 hPa 0,0 l/m 0 min 2 min 0 W/m 8,4 km/h (2 Bft)
25.02.2015 20:06 4,9 C 2,8 C 91 % 1018,4 hPa 0,0 l/m 0 min 2 min 0 W/m 8,4 km/h (2 Bft)
25.02.2015 20:08 4,9 C 2,8 C 91 % 1018,4 hPa 0,0 l/m 0 min 2 min 0 W/m 8,4 km/h (2 Bft)
25.02.2015 20:10 4,9 C 2,8 C 91 % 1018,4 hPa 0,0 l/m 0 min 0 min 0 W/m 8,4 km/h (2 Bft)
25.02.2015 20:12 4,9 C 2,8 C 91 % 1018,4 hPa 0,0 l/m 0 min 0 min 0 W/m 6,3 km/h (2 Bft)
25.02.2015 20:14 4,9 C 2,8 C 92 % 1018,4 hPa 0,0 l/m 0 min 2 min 0 W/m 4,2 km/h (1 Bft)
25.02.2015 20:16 4,9 C 2,8 C 92 % 1018,4 hPa 0,0 l/m 0 min 0 min 0 W/m 6,3 km/h (2 Bft)
25.02.2015 20:18 4,9 C 3,3 C 92 % 1018,4 hPa 0,0 l/m 0 min 0 min 0 W/m 6,3 km/h (2 Bft)
25.02.2015 20:20 4,8 C 3,3 C 92 % 1018,5 hPa 0,0 l/m 0 min 2 min 0 W/m 4,2 km/h (1 Bft)
25.02.2015 20:22 4,8 C 3,3 C 92 % 1018,5 hPa 0,0 l/m 0 min 2 min 0 W/m 6,3 km/h (2 Bft)
25.02.2015 20:24 4,8 C 3,3 C 92 % 1018,4 hPa 0,0 l/m 0 min 2 min 0 W/m 4,2 km/h (1 Bft)
25.02.2015 20:26 4,8 C 3,3 C 92 % 1018,4 hPa 0,0 l/m 0 min 2 min 0 W/m 6,3 km/h (2 Bft)
25.02.2015 20:28 4,8 C 3,3 C 92 % 1018,4 hPa 0,0 l/m 0 min 2 min 0 W/m 6,3 km/h (2 Bft)
25.02.2015 20:30 4,8 C 3,3 C 92 % 1018,4 hPa 0,0 l/m 0 min 2 min 0 W/m 4,2 km/h (1 Bft)
25.02.2015 20:32 4,8 C 3,3 C 92 % 1018,4 hPa 0,0 l/m 0 min 2 min 0 W/m 6,3 km/h (2 Bft)
25.02.2015 20:34 4,8 C 3,3 C 92 % 1018,4 hPa 0,0 l/m 0 min 2 min 0 W/m 6,3 km/h (2 Bft)
25.02.2015 20:36 4,8 C 3,3 C 92 % 1018,4 hPa 0,0 l/m 0 min 2 min 0 W/m 6,3 km/h (2 Bft)
25.02.2015 20:38 4,8 C 3,3 C 92 % 1018,4 hPa 0,0 l/m 0 min 2 min 0 W/m 6,3 km/h (2 Bft)
25.02.2015 20:40 4,8 C 3,3 C 92 % 1018,4 hPa 0,0 l/m 0 min 2 min 0 W/m 4,2 km/h (1 Bft)
25.02.2015 20:42 4,8 C 3,3 C 92 % 1018,5 hPa 0,2 l/m 0 min 2 min 0 W/m 4,2 km/h (1 Bft)
25.02.2015 20:44 4,8 C 3,3 C 92 % 1018,5 hPa 0,0 l/m 0 min 2 min 0 W/m 4,2 km/h (1 Bft)
25.02.2015 20:46 4,8 C 3,3 C 92 % 1018,4 hPa 0,0 l/m 0 min 2 min 0 W/m 4,2 km/h (1 Bft)
25.02.2015 20:48 4,8 C 3,3 C 92 % 1018,4 hPa 0,0 l/m 0 min 2 min 0 W/m 4,2 km/h (1 Bft)
25.02.2015 20:50 4,8 C 3,3 C 92 % 1018,4 hPa 0,0 l/m 0 min 2 min 0 W/m 6,3 km/h (2 Bft)
25.02.2015 20:52 4,8 C 3,3 C 93 % 1018,5 hPa 0,0 l/m 0 min 2 min 0 W/m 6,3 km/h (2 Bft)
25.02.2015 20:54 4,8 C 3,3 C 93 % 1018,4 hPa 0,0 l/m 0 min 2 min 0 W/m 4,2 km/h (1 Bft)
25.02.2015 20:56 4,8 C 3,3 C 93 % 1018,4 hPa 0,0 l/m 0 min 2 min 0 W/m 8,4 km/h (2 Bft)
25.02.2015 20:58 4,8 C 3,3 C 93 % 1018,4 hPa 0,0 l/m 0 min 2 min 0 W/m 6,3 km/h (2 Bft)
25.02.2015 21:00 4,7 C 3,3 C 93 % 1018,4 hPa 0,0 l/m 0 min 2 min 0 W/m 6,3 km/h (2 Bft)
25.02.2015 21:02 4,7 C 3,3 C 93 % 1018,5 hPa 0,0 l/m 0 min 2 min 0 W/m 6,3 km/h (2 Bft)
25.02.2015 21:04 4,7 C 3,3 C 93 % 1018,5 hPa 0,0 l/m 0 min 2 min 0 W/m 6,3 km/h (2 Bft)
25.02.2015 21:06 4,7 C 3,3 C 93 % 1018,5 hPa 0,0 l/m 0 min 0 min 0 W/m 4,2 km/h (1 Bft)
25.02.2015 21:08 4,7 C 3,3 C 93 % 1018,5 hPa 0,0 l/m 0 min 0 min 0 W/m 6,3 km/h (2 Bft)
25.02.2015 21:10 4,7 C 3,3 C 93 % 1018,5 hPa 0,0 l/m 0 min 0 min 0 W/m 6,3 km/h (2 Bft)
25.02.2015 21:12 4,7 C 3,3 C 93 % 1018,5 hPa 0,0 l/m 0 min 0 min 0 W/m 8,4 km/h (2 Bft)
25.02.2015 21:14 4,7 C 3,3 C 93 % 1018,5 hPa 0,0 l/m 0 min 0 min 0 W/m 6,3 km/h (2 Bft)
25.02.2015 21:16 4,7 C 3,3 C 93 % 1018,5 hPa 0,0 l/m 0 min 0 min 0 W/m 6,3 km/h (2 Bft)
25.02.2015 21:18 4,7 C 2,8 C 93 % 1018,5 hPa 0,0 l/m 0 min 0 min 0 W/m 6,3 km/h (2 Bft)
25.02.2015 21:20 4,7 C 2,8 C 93 % 1018,6 hPa 0,0 l/m 0 min 0 min 0 W/m 4,2 km/h (1 Bft)
25.02.2015 21:22 4,7 C 2,8 C 93 % 1018,6 hPa 0,0 l/m 0 min 0 min 0 W/m 4,2 km/h (1 Bft)
25.02.2015 21:24 4,7 C 2,8 C 93 % 1018,5 hPa 0,0 l/m 0 min 0 min 0 W/m 4,2 km/h (1 Bft)
25.02.2015 21:26 4,7 C 2,8 C 93 % 1018,6 hPa 0,0 l/m 0 min 0 min 0 W/m 6,3 km/h (2 Bft)
25.02.2015 21:28 4,6 C 3,3 C 93 % 1018,6 hPa 0,0 l/m 0 min 0 min 0 W/m 4,2 km/h (1 Bft)
25.02.2015 21:30 4,6 C 3,3 C 93 % 1018,6 hPa 0,0 l/m 0 min 0 min 0 W/m 8,4 km/h (2 Bft)
25.02.2015 21:32 4,6 C 3,3 C 93 % 1018,6 hPa 0,0 l/m 0 min 0 min 0 W/m 8,4 km/h (2 Bft)
25.02.2015 21:34 4,6 C 3,3 C 93 % 1018,6 hPa 0,0 l/m 0 min 0 min 0 W/m 6,3 km/h (2 Bft)
25.02.2015 21:36 4,6 C 3,3 C 93 % 1018,6 hPa 0,0 l/m 0 min 0 min 0 W/m 6,3 km/h (2 Bft)
25.02.2015 21:38 4,6 C 3,3 C 93 % 1018,5 hPa 0,0 l/m 0 min 0 min 0 W/m 8,4 km/h (2 Bft)
25.02.2015 21:40 4,6 C 3,3 C 93 % 1018,6 hPa 0,0 l/m 0 min 0 min 0 W/m 4,2 km/h (1 Bft)
25.02.2015 21:42 4,6 C 3,3 C 93 % 1018,5 hPa 0,0 l/m 0 min 0 min 0 W/m 4,2 km/h (1 Bft)
25.02.2015 21:44 4,6 C 3,3 C 93 % 1018,5 hPa 0,0 l/m 0 min 0 min 0 W/m 4,2 km/h (1 Bft)
25.02.2015 21:46 4,6 C 3,3 C 94 % 1018,6 hPa 0,0 l/m 0 min 0 min 0 W/m 8,4 km/h (2 Bft)
25.02.2015 21:48 4,6 C 3,3 C 94 % 1018,6 hPa 0,0 l/m 0 min 0 min 0 W/m 4,2 km/h (1 Bft)
25.02.2015 21:50 4,6 C 3,3 C 94 % 1018,6 hPa 0,0 l/m 0 min 0 min 0 W/m 8,4 km/h (2 Bft)
25.02.2015 21:52 4,6 C 3,3 C 94 % 1018,6 hPa 0,0 l/m 0 min 0 min 0 W/m 8,4 km/h (2 Bft)
25.02.2015 21:54 4,6 C 3,3 C 94 % 1018,5 hPa 0,0 l/m 0 min 0 min 0 W/m 6,3 km/h (2 Bft)
25.02.2015 21:56 4,6 C 3,3 C 94 % 1018,6 hPa 0,0 l/m 0 min 0 min 0 W/m 4,2 km/h (1 Bft)
25.02.2015 21:58 4,6 C 3,3 C 94 % 1018,6 hPa 0,0 l/m 0 min 0 min 0 W/m 6,3 km/h (2 Bft)
25.02.2015 22:00 4,6 C 3,3 C 94 % 1018,6 hPa 0,0 l/m 0 min 0 min 0 W/m 4,2 km/h (1 Bft)
25.02.2015 22:02 4,6 C 3,3 C 94 % 1018,6 hPa 0,0 l/m 0 min 0 min 0 W/m 4,2 km/h (1 Bft)
25.02.2015 22:04 4,6 C 3,3 C 94 % 1018,6 hPa 0,0 l/m 0 min 0 min 0 W/m 4,2 km/h (1 Bft)
25.02.2015 22:06 4,6 C 3,3 C 94 % 1018,6 hPa 0,0 l/m 0 min 0 min 0 W/m 8,4 km/h (2 Bft)
25.02.2015 22:08 4,6 C 3,3 C 94 % 1018,6 hPa 0,0 l/m 0 min 0 min 0 W/m 2,1 km/h (1 Bft)
25.02.2015 22:10 4,6 C 3,3 C 94 % 1018,6 hPa 0,0 l/m 0 min 0 min 0 W/m 4,2 km/h (1 Bft)
25.02.2015 22:12 4,6 C 3,3 C 94 % 1018,7 hPa 0,0 l/m 0 min 0 min 0 W/m 6,3 km/h (2 Bft)
25.02.2015 22:14 4,6 C 3,3 C 94 % 1018,7 hPa 0,0 l/m 0 min 0 min 0 W/m 10,5 km/h (2 Bft)
25.02.2015 22:16 4,6 C 3,3 C 94 % 1018,7 hPa 0,0 l/m 0 min 0 min 0 W/m 6,3 km/h (2 Bft)
25.02.2015 22:18 4,6 C 3,3 C 94 % 1018,7 hPa 0,0 l/m 0 min 0 min 0 W/m 6,3 km/h (2 Bft)
25.02.2015 22:20 4,6 C 3,3 C 94 % 1018,8 hPa 0,0 l/m 0 min 0 min 0 W/m 4,2 km/h (1 Bft)
25.02.2015 22:22 4,6 C 3,3 C 94 % 1018,7 hPa 0,0 l/m 0 min 0 min 0 W/m 6,3 km/h (2 Bft)
25.02.2015 22:24 4,6 C 3,3 C 94 % 1018,8 hPa 0,0 l/m 0 min 0 min 0 W/m 6,3 km/h (2 Bft)
25.02.2015 22:26 4,5 C 3,3 C 94 % 1018,7 hPa 0,0 l/m 0 min 0 min 0 W/m 8,4 km/h (2 Bft)
25.02.2015 22:28 4,6 C 3,3 C 94 % 1018,7 hPa 0,0 l/m 0 min 0 min 0 W/m 6,3 km/h (2 Bft)
25.02.2015 22:30 4,6 C 3,3 C 94 % 1018,8 hPa 0,0 l/m 0 min 0 min 0 W/m 8,4 km/h (2 Bft)
25.02.2015 22:32 4,6 C 3,3 C 94 % 1018,8 hPa 0,0 l/m 0 min 0 min 0 W/m 6,3 km/h (2 Bft)
25.02.2015 22:34 4,5 C 3,3 C 94 % 1018,8 hPa 0,0 l/m 0 min 0 min 0 W/m 4,2 km/h (1 Bft)
25.02.2015 22:36 4,6 C 3,3 C 94 % 1018,8 hPa 0,0 l/m 0 min 0 min 0 W/m 6,3 km/h (2 Bft)
25.02.2015 22:38 4,5 C 3,3 C 94 % 1018,8 hPa 0,0 l/m 0 min 0 min 0 W/m 6,3 km/h (2 Bft)
25.02.2015 22:40 4,5 C 3,3 C 94 % 1018,8 hPa 0,0 l/m 0 min 0 min 0 W/m 6,3 km/h (2 Bft)
25.02.2015 22:42 4,5 C 3,3 C 94 % 1018,7 hPa 0,0 l/m 0 min 0 min 0 W/m 12,6 km/h (3 Bft)
25.02.2015 22:44 4,5 C 3,3 C 94 % 1018,7 hPa 0,0 l/m 0 min 0 min 0 W/m 12,6 km/h (3 Bft)
25.02.2015 22:46 4,6 C 3,3 C 95 % 1018,8 hPa 0,0 l/m 0 min 0 min 0 W/m 8,4 km/h (2 Bft)
25.02.2015 22:48 4,6 C 3,3 C 95 % 1018,8 hPa 0,0 l/m 0 min 0 min 0 W/m 6,3 km/h (2 Bft)
25.02.2015 22:50 4,6 C 3,3 C 95 % 1018,8 hPa 0,0 l/m 0 min 0 min 0 W/m 4,2 km/h (1 Bft)
25.02.2015 22:52 4,5 C 3,3 C 94 % 1018,8 hPa 0,0 l/m 0 min 0 min 0 W/m 8,4 km/h (2 Bft)
25.02.2015 22:54 4,6 C 3,3 C 94 % 1018,7 hPa 0,0 l/m 0 min 0 min 0 W/m 6,3 km/h (2 Bft)
25.02.2015 22:56 4,6 C 2,8 C 94 % 1018,7 hPa 0,0 l/m 0 min 0 min 0 W/m 4,2 km/h (1 Bft)
25.02.2015 22:58 4,5 C 2,8 C 94 % 1018,7 hPa 0,0 l/m 0 min 0 min 0 W/m 8,4 km/h (2 Bft)
25.02.2015 23:00 4,5 C 2,8 C 94 % 1018,8 hPa 0,0 l/m 0 min 0 min 0 W/m 8,4 km/h (2 Bft)
25.02.2015 23:02 4,6 C 2,8 C 94 % 1018,8 hPa 0,0 l/m 0 min 0 min 0 W/m 4,2 km/h (1 Bft)
25.02.2015 23:04 4,5 C 2,8 C 94 % 1018,8 hPa 0,0 l/m 0 min 0 min 0 W/m 4,2 km/h (1 Bft)
25.02.2015 23:06 4,5 C 2,8 C 94 % 1018,8 hPa 0,0 l/m 0 min 0 min 0 W/m 6,3 km/h (2 Bft)
25.02.2015 23:08 4,5 C 2,8 C 95 % 1018,8 hPa 0,0 l/m 0 min 0 min 0 W/m 4,2 km/h (1 Bft)
25.02.2015 23:10 4,5 C 2,8 C 95 % 1018,8 hPa 0,0 l/m 0 min 0 min 0 W/m 6,3 km/h (2 Bft)
25.02.2015 23:12 4,5 C 2,8 C 95 % 1018,9 hPa 0,0 l/m 0 min 0 min 0 W/m 4,2 km/h (1 Bft)
25.02.2015 23:14 4,5 C 2,8 C 95 % 1018,9 hPa 0,0 l/m 0 min 0 min 0 W/m 6,3 km/h (2 Bft)
25.02.2015 23:16 4,5 C 2,8 C 95 % 1018,9 hPa 0,0 l/m 0 min 0 min 0 W/m 4,2 km/h (1 Bft)
25.02.2015 23:18 4,5 C 2,8 C 95 % 1018,9 hPa 0,0 l/m 0 min 0 min 0 W/m 4,2 km/h (1 Bft)
25.02.2015 23:20 4,5 C 2,8 C 95 % 1018,9 hPa 0,0 l/m 0 min 0 min 0 W/m 4,2 km/h (1 Bft)
25.02.2015 23:22 4,5 C 2,8 C 95 % 1018,9 hPa 0,0 l/m 0 min 0 min 0 W/m 4,2 km/h (1 Bft)
25.02.2015 23:24 4,4 C 2,8 C 95 % 1018,9 hPa 0,0 l/m 0 min 0 min 0 W/m 4,2 km/h (1 Bft)
25.02.2015 23:26 4,5 C 2,8 C 95 % 1019,0 hPa 0,0 l/m 0 min 0 min 0 W/m 2,1 km/h (1 Bft)
25.02.2015 23:28 4,4 C 2,8 C 95 % 1018,9 hPa 0,0 l/m 0 min 0 min 0 W/m 4,2 km/h (1 Bft)
25.02.2015 23:30 4,5 C 2,8 C 95 % 1018,9 hPa 0,0 l/m 0 min 0 min 0 W/m 4,2 km/h (1 Bft)
25.02.2015 23:32 4,5 C 2,8 C 95 % 1018,9 hPa 0,0 l/m 0 min 0 min 0 W/m 4,2 km/h (1 Bft)
25.02.2015 23:34 4,4 C 2,8 C 95 % 1018,9 hPa 0,0 l/m 0 min 0 min 0 W/m 4,2 km/h (1 Bft)
25.02.2015 23:36 4,4 C 2,8 C 95 % 1019,0 hPa 0,0 l/m 0 min 0 min 0 W/m 6,3 km/h (2 Bft)
25.02.2015 23:38 4,4 C 2,8 C 95 % 1019,0 hPa 0,0 l/m 0 min 0 min 0 W/m 4,2 km/h (1 Bft)
25.02.2015 23:40 4,4 C 2,8 C 95 % 1019,1 hPa 0,0 l/m 0 min 0 min 0 W/m 4,2 km/h (1 Bft)
25.02.2015 23:42 4,4 C 2,8 C 95 % 1019,1 hPa 0,0 l/m 0 min 0 min 0 W/m 4,2 km/h (1 Bft)
25.02.2015 23:44 4,4 C 2,8 C 95 % 1019,1 hPa 0,0 l/m 0 min 0 min 0 W/m 4,2 km/h (1 Bft)
25.02.2015 23:46 4,4 C 2,8 C 95 % 1019,1 hPa 0,0 l/m 0 min 0 min 0 W/m 4,2 km/h (1 Bft)
25.02.2015 23:48 4,4 C 2,8 C 95 % 1019,0 hPa 0,0 l/m 0 min 0 min 0 W/m 6,3 km/h (2 Bft)
25.02.2015 23:50 4,4 C 2,8 C 95 % 1019,0 hPa 0,0 l/m 0 min 0 min 0 W/m 6,3 km/h (2 Bft)
25.02.2015 23:52 4,4 C 2,8 C 95 % 1019,0 hPa 0,0 l/m 0 min 0 min 0 W/m 8,4 km/h (2 Bft)
25.02.2015 23:54 4,4 C 2,8 C 95 % 1019,0 hPa 0,0 l/m 0 min 0 min 0 W/m 8,4 km/h (2 Bft)
25.02.2015 23:56 4,4 C 2,8 C 95 % 1019,0 hPa 0,0 l/m 0 min 0 min 0 W/m 6,3 km/h (2 Bft)
25.02.2015 23:58 4,4 C 2,8 C 95 % 1019,0 hPa 0,0 l/m 0 min 0 min 0 W/m 6,3 km/h (2 Bft)
_ Min-Zeit 06:30 04:50 12:54 00:26 - - - - 22:08
Minimum _ 1,3 C 0,0 C 80 % 1013,4 hPa - - - - 2,1 km/h (1 Bft)
_ Max-Zeit 12:52 12:48 06:56 23:40 00:08 07:40 00:08 11:54 11:08
Maximum _ 8,3 C 7,8 C 97 % 1019,1 hPa 0,2 l/m 2 min 2 min 616 W/m 31,4 km/h
W-SW (5 Bft)
Durchschnitt _ 4,4 C 2,9 C 92 % 1016,4 hPa #1,8 l/m #5:04 h #2:30 h 171 W/m 12,9 km/h (3 Bft)
© 2015 W. Hausmann